Wetterdaten: Samstag, 10.03.2018
Datum Zeit Temp. Aussen Temp. o. S. +5cm Feuchte Auss BlattFeu 1 Luftdruck Regen Sonnenschein Regendauer Solar Windben Empfang
10.03.2018 00:00 7,5 C 7,2 C 6,1 C 97 % 15 lf 1001,6 hPa 0,0 l/m 0 min 2 min 0 W/m 15,8 km/h (3 Bft) 97,87 %
10.03.2018 00:02 7,4 C 7,2 C 6,1 C 97 % 15 lf 1001,5 hPa 0,0 l/m 0 min 2 min 0 W/m 18,0 km/h (3 Bft) 100,00 %
10.03.2018 00:04 7,4 C 7,2 C 6,1 C 97 % 15 lf 1001,5 hPa 0,2 l/m 0 min 2 min 0 W/m 18,0 km/h (3 Bft) 97,87 %
10.03.2018 00:08 7,4 C 7,2 C 6,1 C 97 % 15 lf 1001,6 hPa 0,0 l/m 0 min 4 min 0 W/m 15,8 km/h (3 Bft) 96,77 %
10.03.2018 00:10 7,4 C 7,2 C 6,1 C 97 % 15 lf 1001,5 hPa 0,0 l/m 0 min 2 min 0 W/m 15,8 km/h (3 Bft) 97,87 %
10.03.2018 00:12 7,4 C 7,2 C 6,1 C 97 % 15 lf 1001,5 hPa 0,0 l/m 0 min 2 min 0 W/m 18,0 km/h (3 Bft) 97,87 %
10.03.2018 00:14 7,4 C 7,2 C 6,1 C 97 % 15 lf 1001,4 hPa 0,0 l/m 0 min 2 min 0 W/m 13,5 km/h (3 Bft) 91,49 %
10.03.2018 00:16 7,4 C 7,2 C 6,1 C 97 % 15 lf 1001,5 hPa 0,0 l/m 0 min 2 min 0 W/m 20,3 km/h (4 Bft) 97,87 %
10.03.2018 00:18 7,4 C 7,2 C 6,1 C 97 % 15 lf 1001,5 hPa 0,0 l/m 0 min 2 min 0 W/m 18,0 km/h (3 Bft) 97,83 %
10.03.2018 00:20 7,4 C 7,2 C 6,1 C 97 % 15 lf 1001,4 hPa 0,0 l/m 0 min 2 min 0 W/m 22,5 km/h (4 Bft) 97,87 %
10.03.2018 00:22 7,4 C 7,2 C 6,1 C 97 % 15 lf 1001,4 hPa 0,0 l/m 0 min 2 min 0 W/m 20,3 km/h (4 Bft) 97,87 %
10.03.2018 00:24 7,4 C 7,2 C 6,1 C 97 % 15 lf 1001,4 hPa 0,0 l/m 0 min 0 min 0 W/m 15,8 km/h (3 Bft) 97,87 %
10.03.2018 00:26 7,4 C 7,2 C 6,1 C 97 % 15 lf 1001,4 hPa 0,0 l/m 0 min 2 min 0 W/m 18,0 km/h (3 Bft) 95,74 %
10.03.2018 00:28 7,4 C 7,2 C 6,1 C 97 % 15 lf 1001,3 hPa 0,0 l/m 0 min 2 min 0 W/m 20,3 km/h (4 Bft) 97,87 %
10.03.2018 00:30 7,4 C 7,2 C 6,1 C 97 % 15 lf 1001,4 hPa 0,0 l/m 0 min 2 min 0 W/m 15,8 km/h (3 Bft) 97,83 %
10.03.2018 00:32 7,4 C 7,2 C 6,1 C 97 % 15 lf 1001,3 hPa 0,0 l/m 0 min 2 min 0 W/m 15,8 km/h (3 Bft) 97,87 %
10.03.2018 00:34 7,4 C 7,2 C 6,1 C 97 % 15 lf 1001,3 hPa 0,0 l/m 0 min 2 min 0 W/m 15,8 km/h (3 Bft) 97,87 %
10.03.2018 00:36 7,4 C 7,2 C 6,1 C 97 % 15 lf 1001,3 hPa 0,0 l/m 0 min 2 min 0 W/m 13,5 km/h (3 Bft) 97,87 %
10.03.2018 00:38 7,4 C 7,2 C 6,1 C 97 % 15 lf 1001,3 hPa 0,0 l/m 0 min 2 min 0 W/m 15,8 km/h (3 Bft) 97,87 %
10.03.2018 00:40 7,4 C 7,2 C 6,1 C 97 % 15 lf 1001,2 hPa 0,0 l/m 0 min 2 min 0 W/m 11,3 km/h (2 Bft) 95,65 %
10.03.2018 00:42 7,4 C 7,2 C 6,1 C 97 % 15 lf 1001,2 hPa 0,0 l/m 0 min 2 min 0 W/m 18,0 km/h (3 Bft) 97,87 %
10.03.2018 00:44 7,4 C 7,2 C 6,1 C 97 % 15 lf 1001,2 hPa 0,0 l/m 0 min 2 min 0 W/m 11,3 km/h (2 Bft) 95,74 %
10.03.2018 00:46 7,4 C 7,2 C 6,1 C 97 % 15 lf 1001,2 hPa 0,0 l/m 0 min 2 min 0 W/m 15,8 km/h (3 Bft) 97,87 %
10.03.2018 00:48 7,5 C 7,2 C 6,1 C 97 % 15 lf 1001,2 hPa 0,0 l/m 0 min 2 min 0 W/m 18,0 km/h (3 Bft) 97,87 %
10.03.2018 00:50 7,4 C 7,2 C 6,1 C 97 % 15 lf 1001,2 hPa 0,0 l/m 0 min 0 min 0 W/m 18,0 km/h (3 Bft) 97,87 %
10.03.2018 00:52 7,5 C 7,2 C 6,1 C 97 % 15 lf 1001,1 hPa 0,0 l/m 0 min 2 min 0 W/m 13,5 km/h (3 Bft) 100,00 %
10.03.2018 00:54 7,4 C 7,2 C 6,1 C 97 % 15 lf 1001,2 hPa 0,0 l/m 0 min 2 min 0 W/m 13,5 km/h (3 Bft) 95,74 %
10.03.2018 00:56 7,5 C 7,2 C 6,1 C 97 % 15 lf 1001,1 hPa 0,0 l/m 0 min 2 min 0 W/m 15,8 km/h (3 Bft) 95,74 %
10.03.2018 00:58 7,5 C 7,2 C 6,1 C 97 % 15 lf 1001,1 hPa 0,0 l/m 0 min 2 min 0 W/m 18,0 km/h (3 Bft) 97,87 %
10.03.2018 01:00 7,5 C 7,2 C 6,1 C 98 % 15 lf 1001,1 hPa 0,0 l/m 0 min 2 min 0 W/m 13,5 km/h (3 Bft) 97,87 %
10.03.2018 01:02 7,5 C 7,2 C 6,1 C 98 % 15 lf 1001,1 hPa 0,0 l/m 0 min 2 min 0 W/m 13,5 km/h (3 Bft) 95,74 %
10.03.2018 01:04 7,5 C 7,2 C 6,1 C 98 % 15 lf 1001,0 hPa 0,0 l/m 0 min 2 min 0 W/m 18,0 km/h (3 Bft) 93,48 %
10.03.2018 01:06 7,5 C 7,2 C 6,1 C 98 % 15 lf 1001,0 hPa 0,0 l/m 0 min 2 min 0 W/m 18,0 km/h (3 Bft) 93,62 %
10.03.2018 01:08 7,5 C 7,2 C 6,1 C 98 % 15 lf 1001,1 hPa 0,0 l/m 0 min 2 min 0 W/m 15,8 km/h (3 Bft) 95,74 %
10.03.2018 01:10 7,5 C 7,2 C 6,1 C 98 % 15 lf 1001,2 hPa 0,0 l/m 0 min 2 min 0 W/m 11,3 km/h (2 Bft) 93,62 %
10.03.2018 01:12 7,5 C 7,2 C 6,1 C 98 % 15 lf 1001,0 hPa 0,2 l/m 0 min 2 min 0 W/m 15,8 km/h (3 Bft) 97,87 %
10.03.2018 01:14 7,5 C 7,2 C 6,1 C 98 % 15 lf 1001,0 hPa 0,0 l/m 0 min 2 min 0 W/m 20,3 km/h (4 Bft) 95,74 %
10.03.2018 01:16 7,5 C 7,2 C 6,1 C 98 % 15 lf 1001,0 hPa 0,0 l/m 0 min 2 min 0 W/m 15,8 km/h (3 Bft) 93,48 %
10.03.2018 01:18 7,5 C 7,2 C 6,1 C 98 % 15 lf 1001,1 hPa 0,0 l/m 0 min 2 min 0 W/m 15,8 km/h (3 Bft) 95,74 %
10.03.2018 01:20 7,5 C 7,2 C 6,1 C 98 % 15 lf 1001,1 hPa 0,0 l/m 0 min 2 min 0 W/m 18,0 km/h (3 Bft) 93,62 %
10.03.2018 01:22 7,5 C 7,2 C 6,1 C 98 % 15 lf 1001,1 hPa 0,0 l/m 0 min 2 min 0 W/m 11,3 km/h (2 Bft) 91,49 %
10.03.2018 01:24 7,6 C 7,2 C 6,1 C 98 % 15 lf 1001,0 hPa 0,0 l/m 0 min 2 min 0 W/m 18,0 km/h (3 Bft) 95,74 %
10.03.2018 01:26 7,5 C 7,2 C 6,1 C 98 % 15 lf 1001,0 hPa 0,0 l/m 0 min 2 min 0 W/m 15,8 km/h (3 Bft) 93,62 %
10.03.2018 01:28 7,6 C 7,2 C 6,1 C 98 % 15 lf 1001,0 hPa 0,0 l/m 0 min 2 min 0 W/m 15,8 km/h (3 Bft) 95,65 %
10.03.2018 01:30 7,6 C 7,2 C 6,1 C 98 % 15 lf 1001,0 hPa 0,0 l/m 0 min 2 min 0 W/m 18,0 km/h (3 Bft) 95,74 %
10.03.2018 01:32 7,6 C 7,2 C 6,1 C 98 % 15 lf 1001,0 hPa 0,0 l/m 0 min 2 min 0 W/m 13,5 km/h (3 Bft) 93,62 %
10.03.2018 01:34 7,6 C 7,2 C 6,1 C 98 % 15 lf 1001,0 hPa 0,0 l/m 0 min 2 min 0 W/m 13,5 km/h (3 Bft) 91,49 %
10.03.2018 01:36 7,6 C 7,2 C 6,1 C 98 % 15 lf 1001,0 hPa 0,0 l/m 0 min 2 min 0 W/m 13,5 km/h (3 Bft) 91,49 %
10.03.2018 01:38 7,6 C 7,2 C 6,1 C 98 % 15 lf 1000,9 hPa 0,0 l/m 0 min 2 min 0 W/m 18,0 km/h (3 Bft) 95,74 %
10.03.2018 01:40 7,6 C 7,2 C 6,1 C 98 % 15 lf 1001,0 hPa 0,2 l/m 0 min 2 min 0 W/m 18,0 km/h (3 Bft) 91,30 %
10.03.2018 01:42 7,6 C 7,2 C 6,1 C 98 % 15 lf 1001,0 hPa 0,0 l/m 0 min 2 min 0 W/m 13,5 km/h (3 Bft) 95,74 %
10.03.2018 01:44 7,6 C 7,2 C 6,1 C 98 % 15 lf 1001,0 hPa 0,0 l/m 0 min 2 min 0 W/m 15,8 km/h (3 Bft) 97,87 %
10.03.2018 01:46 7,6 C 7,2 C 6,1 C 98 % 15 lf 1001,0 hPa 0,0 l/m 0 min 2 min 0 W/m 18,0 km/h (3 Bft) 97,87 %
10.03.2018 01:48 7,6 C 7,2 C 6,1 C 98 % 15 lf 1001,0 hPa 0,0 l/m 0 min 2 min 0 W/m 11,3 km/h (2 Bft) 89,36 %
10.03.2018 01:50 7,6 C 7,2 C 6,1 C 98 % 15 lf 1001,0 hPa 0,0 l/m 0 min 2 min 0 W/m 18,0 km/h (3 Bft) 95,74 %
10.03.2018 01:52 7,6 C 7,2 C 6,1 C 98 % 15 lf 1001,0 hPa 0,0 l/m 0 min 2 min 0 W/m 15,8 km/h (3 Bft) 95,65 %
10.03.2018 01:54 7,6 C 7,2 C 6,1 C 98 % 15 lf 1001,0 hPa 0,0 l/m 0 min 2 min 0 W/m 18,0 km/h (3 Bft) 89,36 %
10.03.2018 01:56 7,6 C 7,2 C 6,1 C 98 % 15 lf 1001,0 hPa 0,0 l/m 0 min 2 min 0 W/m 15,8 km/h (3 Bft) 95,74 %
10.03.2018 01:58 7,6 C 7,2 C 6,1 C 98 % 15 lf 1001,0 hPa 0,0 l/m 0 min 2 min 0 W/m 11,3 km/h (2 Bft) 97,87 %
10.03.2018 02:00 7,6 C 7,2 C 6,1 C 98 % 15 lf 1001,0 hPa 0,0 l/m 0 min 0 min 0 W/m 13,5 km/h (3 Bft) 97,87 %
10.03.2018 02:02 7,6 C 7,2 C 6,1 C 98 % 15 lf 1000,9 hPa 0,0 l/m 0 min 0 min 0 W/m 13,5 km/h (3 Bft) 97,83 %
10.03.2018 02:04 7,6 C 7,2 C 6,1 C 98 % 15 lf 1000,9 hPa 0,2 l/m 0 min 0 min 0 W/m 13,5 km/h (3 Bft) 97,87 %
10.03.2018 02:06 7,6 C 7,2 C 6,1 C 98 % 15 lf 1000,9 hPa 0,0 l/m 0 min 2 min 0 W/m 13,5 km/h (3 Bft) 97,87 %
10.03.2018 02:08 7,6 C 7,2 C 6,1 C 98 % 15 lf 1000,9 hPa 0,0 l/m 0 min 2 min 0 W/m 11,3 km/h (2 Bft) 97,87 %
10.03.2018 02:10 7,6 C 7,2 C 6,1 C 98 % 15 lf 1000,8 hPa 0,0 l/m 0 min 2 min 0 W/m 15,8 km/h (3 Bft) 95,74 %
10.03.2018 02:12 7,6 C 7,2 C 6,1 C 98 % 15 lf 1000,8 hPa 0,0 l/m 0 min 2 min 0 W/m 15,8 km/h (3 Bft) 91,49 %
10.03.2018 02:14 7,6 C 7,2 C 6,1 C 98 % 15 lf 1000,8 hPa 0,0 l/m 0 min 2 min 0 W/m 11,3 km/h (2 Bft) 95,65 %
10.03.2018 02:16 7,6 C 7,2 C 6,1 C 98 % 15 lf 1000,8 hPa 0,0 l/m 0 min 2 min 0 W/m 11,3 km/h (2 Bft) 95,74 %
10.03.2018 02:18 7,6 C 7,2 C 6,1 C 98 % 15 lf 1000,8 hPa 0,0 l/m 0 min 2 min 0 W/m 13,5 km/h (3 Bft) 97,87 %
10.03.2018 02:20 7,6 C 7,2 C 6,1 C 98 % 15 lf 1000,7 hPa 0,0 l/m 0 min 2 min 0 W/m 9,0 km/h (2 Bft) 95,74 %
10.03.2018 02:22 7,6 C 7,2 C 6,1 C 98 % 15 lf 1000,7 hPa 0,0 l/m 0 min 2 min 0 W/m 11,3 km/h (2 Bft) 93,62 %
10.03.2018 02:24 7,6 C 7,2 C 6,1 C 98 % 15 lf 1000,7 hPa 0,0 l/m 0 min 0 min 0 W/m 9,0 km/h (2 Bft) 97,87 %
10.03.2018 02:26 7,6 C 7,2 C 6,1 C 98 % 15 lf 1000,7 hPa 0,0 l/m 0 min 0 min 0 W/m 13,5 km/h (3 Bft) 97,83 %
10.03.2018 02:28 7,6 C 7,2 C 6,1 C 98 % 15 lf 1000,5 hPa 0,2 l/m 0 min 0 min 0 W/m 11,3 km/h (2 Bft) 100,00 %
10.03.2018 02:30 7,6 C 7,2 C 6,1 C 98 % 15 lf 1000,4 hPa 0,0 l/m 0 min 0 min 0 W/m 20,3 km/h (4 Bft) 95,74 %
10.03.2018 02:32 7,6 C 7,2 C 6,1 C 98 % 15 lf 1000,4 hPa 0,0 l/m 0 min 0 min 0 W/m 15,8 km/h (3 Bft) 97,87 %
10.03.2018 02:34 7,6 C 7,2 C 6,1 C 98 % 15 lf 1000,4 hPa 0,0 l/m 0 min 0 min 0 W/m 13,5 km/h (3 Bft) 97,87 %
10.03.2018 02:36 7,6 C 7,2 C 6,1 C 98 % 15 lf 1000,4 hPa 0,0 l/m 0 min 2 min 0 W/m 9,0 km/h (2 Bft) 100,00 %
10.03.2018 02:38 7,6 C 7,2 C 6,1 C 98 % 15 lf 1000,4 hPa 0,0 l/m 0 min 0 min 0 W/m 13,5 km/h (3 Bft) 100,00 %
10.03.2018 02:40 7,6 C 7,2 C 6,1 C 98 % 15 lf 1000,3 hPa 0,0 l/m 0 min 0 min 0 W/m 6,8 km/h (2 Bft) 97,87 %
10.03.2018 02:42 7,6 C 7,2 C 6,1 C 98 % 15 lf 1000,3 hPa 0,0 l/m 0 min 0 min 0 W/m 13,5 km/h (3 Bft) 100,00 %
10.03.2018 02:44 7,7 C 7,2 C 6,1 C 98 % 15 lf 1000,3 hPa 0,0 l/m 0 min 0 min 0 W/m 13,5 km/h (3 Bft) 100,00 %
10.03.2018 02:46 7,7 C 7,2 C 6,1 C 98 % 15 lf 1000,3 hPa 0,0 l/m 0 min 0 min 0 W/m 15,8 km/h (3 Bft) 97,87 %
10.03.2018 02:48 7,7 C 7,2 C 6,1 C 98 % 15 lf 1000,3 hPa 0,0 l/m 0 min 2 min 0 W/m 13,5 km/h (3 Bft) 100,00 %
10.03.2018 02:50 7,7 C 7,2 C 6,1 C 98 % 15 lf 1000,3 hPa 0,0 l/m 0 min 2 min 0 W/m 15,8 km/h (3 Bft) 95,65 %
10.03.2018 02:52 7,7 C 7,2 C 6,1 C 98 % 15 lf 1000,4 hPa 0,0 l/m 0 min 2 min 0 W/m 9,0 km/h (2 Bft) 97,87 %
10.03.2018 02:54 7,7 C 7,2 C 6,1 C 98 % 15 lf 1000,3 hPa 0,0 l/m 0 min 2 min 0 W/m 6,8 km/h (2 Bft) 100,00 %
10.03.2018 02:56 7,7 C 7,2 C 6,1 C 98 % 15 lf 1000,3 hPa 0,0 l/m 0 min 2 min 0 W/m 11,3 km/h (2 Bft) 100,00 %
10.03.2018 02:58 7,7 C 7,2 C 6,1 C 98 % 15 lf 1000,3 hPa 0,0 l/m 0 min 2 min 0 W/m 13,5 km/h (3 Bft) 97,87 %
10.03.2018 03:00 7,7 C 7,2 C 6,1 C 98 % 15 lf 1000,2 hPa 0,0 l/m 0 min 2 min 0 W/m 15,8 km/h (3 Bft) 100,00 %
10.03.2018 03:02 7,7 C 7,2 C 6,1 C 98 % 15 lf 1000,2 hPa 0,0 l/m 0 min 2 min 0 W/m 11,3 km/h (2 Bft) 95,65 %
10.03.2018 03:04 7,7 C 7,2 C 6,1 C 98 % 15 lf 1000,1 hPa 0,0 l/m 0 min 2 min 0 W/m 11,3 km/h (2 Bft) 100,00 %
10.03.2018 03:06 7,7 C 7,2 C 6,1 C 98 % 15 lf 1000,2 hPa 0,0 l/m 0 min 2 min 0 W/m 9,0 km/h (2 Bft) 97,87 %
10.03.2018 03:08 7,7 C 7,2 C 6,1 C 98 % 15 lf 1000,2 hPa 0,0 l/m 0 min 2 min 0 W/m 13,5 km/h (3 Bft) 97,87 %
10.03.2018 03:10 7,7 C 7,2 C 6,1 C 98 % 15 lf 1000,2 hPa 0,0 l/m 0 min 2 min 0 W/m 6,8 km/h (2 Bft) 97,87 %
10.03.2018 03:12 7,7 C 7,2 C 6,1 C 98 % 15 lf 1000,1 hPa 0,2 l/m 0 min 2 min 0 W/m 15,8 km/h (3 Bft) 97,87 %
10.03.2018 03:14 7,7 C 7,2 C 6,1 C 98 % 15 lf 1000,1 hPa 0,0 l/m 0 min 0 min 0 W/m 9,0 km/h (2 Bft) 97,83 %
10.03.2018 03:16 7,7 C 7,2 C 6,1 C 98 % 15 lf 999,9 hPa 0,0 l/m 0 min 0 min 0 W/m 15,8 km/h (3 Bft) 97,92 %
10.03.2018 03:18 7,7 C 7,2 C 6,1 C 98 % 15 lf 999,9 hPa 0,0 l/m 0 min 0 min 0 W/m 13,5 km/h (3 Bft) 97,87 %
10.03.2018 03:20 7,7 C 7,2 C 6,1 C 98 % 15 lf 999,8 hPa 0,0 l/m 0 min 0 min 0 W/m 15,8 km/h (3 Bft) 97,87 %
10.03.2018 03:22 7,7 C 7,2 C 6,1 C 98 % 15 lf 999,8 hPa 0,0 l/m 0 min 0 min 0 W/m 15,8 km/h (3 Bft) 95,74 %
10.03.2018 03:24 7,7 C 7,2 C 6,1 C 98 % 15 lf 999,9 hPa 0,0 l/m 0 min 0 min 0 W/m 13,5 km/h (3 Bft) 97,87 %
10.03.2018 03:26 7,7 C 7,2 C 6,7 C 98 % 15 lf 999,8 hPa 0,0 l/m 0 min 2 min 0 W/m 11,3 km/h (2 Bft) 95,65 %
10.03.2018 03:28 7,7 C 7,2 C 6,7 C 98 % 15 lf 999,8 hPa 0,0 l/m 0 min 0 min 0 W/m 11,3 km/h (2 Bft) 95,74 %
10.03.2018 03:30 7,8 C 7,2 C 6,7 C 98 % 15 lf 999,8 hPa 0,0 l/m 0 min 0 min 0 W/m 15,8 km/h (3 Bft) 93,62 %
10.03.2018 03:32 7,8 C 7,2 C 6,7 C 98 % 15 lf 999,7 hPa 0,0 l/m 0 min 0 min 0 W/m 15,8 km/h (3 Bft) 93,62 %
10.03.2018 03:34 7,8 C 7,2 C 6,7 C 98 % 15 lf 999,8 hPa 0,0 l/m 0 min 0 min 0 W/m 13,5 km/h (3 Bft) 95,74 %
10.03.2018 03:36 7,8 C 7,2 C 6,7 C 98 % 15 lf 999,7 hPa 0,0 l/m 0 min 0 min 0 W/m 13,5 km/h (3 Bft) 91,30 %
10.03.2018 03:38 7,8 C 7,2 C 6,7 C 98 % 15 lf 999,7 hPa 0,0 l/m 0 min 0 min 0 W/m 9,0 km/h (2 Bft) 95,74 %
10.03.2018 03:40 7,8 C 7,2 C 6,7 C 98 % 15 lf 999,7 hPa 0,0 l/m 0 min 0 min 0 W/m 11,3 km/h (2 Bft) 95,74 %
10.03.2018 03:42 7,8 C 7,2 C 6,7 C 98 % 15 lf 999,8 hPa 0,0 l/m 0 min 0 min 0 W/m 15,8 km/h (3 Bft) 95,74 %
10.03.2018 03:44 7,8 C 7,2 C 6,7 C 98 % 15 lf 999,8 hPa 0,0 l/m 0 min 0 min 0 W/m 11,3 km/h (2 Bft) 93,62 %
10.03.2018 03:46 7,8 C 7,2 C 6,7 C 98 % 15 lf 999,7 hPa 0,0 l/m 0 min 0 min 0 W/m 18,0 km/h (3 Bft) 93,62 %
10.03.2018 03:48 7,8 C 7,8 C 6,7 C 98 % 15 lf 999,7 hPa 0,0 l/m 0 min 0 min 0 W/m 15,8 km/h (3 Bft) 93,48 %
10.03.2018 03:50 7,8 C 7,8 C 6,7 C 98 % 15 lf 999,6 hPa 0,2 l/m 0 min 0 min 0 W/m 18,0 km/h (3 Bft) 95,74 %
10.03.2018 03:52 7,8 C 7,8 C 6,7 C 98 % 15 lf 999,6 hPa 0,0 l/m 0 min 0 min 0 W/m 13,5 km/h (3 Bft) 95,74 %
10.03.2018 03:54 7,8 C 7,8 C 6,7 C 98 % 15 lf 999,7 hPa 0,0 l/m 0 min 0 min 0 W/m 18,0 km/h (3 Bft) 95,74 %
10.03.2018 03:56 7,9 C 7,8 C 6,7 C 98 % 15 lf 999,6 hPa 0,0 l/m 0 min 0 min 0 W/m 15,8 km/h (3 Bft) 95,74 %
10.03.2018 03:58 7,9 C 7,8 C 6,7 C 98 % 15 lf 999,7 hPa 0,0 l/m 0 min 0 min 0 W/m 13,5 km/h (3 Bft) 93,62 %
10.03.2018 04:00 7,9 C 7,8 C 6,7 C 99 % 15 lf 999,7 hPa 0,0 l/m 0 min 0 min 0 W/m 13,5 km/h (3 Bft) 95,65 %
10.03.2018 04:05 7,9 C 7,8 C 6,7 C 99 % 15 lf 999,6 hPa 0,0 l/m 0 min 0 min 0 W/m 20,3 km/h (4 Bft) 98,57 %
10.03.2018 04:06 7,9 C 7,8 C 6,7 C 99 % 15 lf 999,5 hPa 0,0 l/m 0 min 0 min 0 W/m 13,5 km/h (3 Bft) 95,83 %
10.03.2018 04:08 7,9 C 7,8 C 6,7 C 99 % 15 lf 999,5 hPa 0,0 l/m 0 min 0 min 0 W/m 22,5 km/h (4 Bft) 97,87 %
10.03.2018 04:10 8,0 C 7,8 C 6,7 C 99 % 15 lf 999,5 hPa 0,0 l/m 0 min 0 min 0 W/m 15,8 km/h (3 Bft) 95,74 %
10.03.2018 04:12 8,0 C 7,8 C 6,7 C 99 % 15 lf 999,4 hPa 0,0 l/m 0 min 0 min 0 W/m 15,8 km/h (3 Bft) 93,48 %
10.03.2018 04:14 8,0 C 7,8 C 6,7 C 99 % 15 lf 999,3 hPa 0,0 l/m 0 min 0 min 0 W/m 20,3 km/h (4 Bft) 95,74 %
10.03.2018 04:16 8,0 C 7,8 C 6,7 C 99 % 15 lf 999,3 hPa 0,0 l/m 0 min 0 min 0 W/m 15,8 km/h (3 Bft) 91,49 %
10.03.2018 04:18 8,1 C 7,8 C 6,7 C 99 % 15 lf 999,3 hPa 0,0 l/m 0 min 0 min 0 W/m 20,3 km/h (4 Bft) 93,62 %
10.03.2018 04:20 8,1 C 7,8 C 6,7 C 99 % 15 lf 999,3 hPa 0,0 l/m 0 min 0 min 0 W/m 18,0 km/h (3 Bft) 93,62 %
10.03.2018 04:22 8,1 C 7,8 C 6,7 C 99 % 15 lf 999,2 hPa 0,0 l/m 0 min 0 min 0 W/m 15,8 km/h (3 Bft) 95,65 %
10.03.2018 04:24 8,1 C 7,8 C 6,7 C 99 % 15 lf 999,3 hPa 0,0 l/m 0 min 0 min 0 W/m 18,0 km/h (3 Bft) 97,87 %
10.03.2018 04:26 8,1 C 7,8 C 6,7 C 99 % 15 lf 999,2 hPa 0,0 l/m 0 min 0 min 0 W/m 15,8 km/h (3 Bft) 97,87 %
10.03.2018 04:28 8,1 C 7,8 C 6,7 C 98 % 15 lf 999,2 hPa 0,0 l/m 0 min 0 min 0 W/m 18,0 km/h (3 Bft) 93,62 %
10.03.2018 04:30 8,1 C 7,8 C 6,7 C 99 % 15 lf 999,2 hPa 0,0 l/m 0 min 0 min 0 W/m 15,8 km/h (3 Bft) 95,74 %
10.03.2018 04:32 8,1 C 7,8 C 6,7 C 98 % 15 lf 999,2 hPa 0,0 l/m 0 min 0 min 0 W/m 15,8 km/h (3 Bft) 97,87 %
10.03.2018 04:34 8,1 C 7,8 C 6,7 C 98 % 15 lf 999,2 hPa 0,0 l/m 0 min 0 min 0 W/m 20,3 km/h (4 Bft) 95,65 %
10.03.2018 04:36 8,1 C 7,8 C 6,7 C 98 % 15 lf 999,2 hPa 0,0 l/m 0 min 0 min 0 W/m 18,0 km/h (3 Bft) 97,87 %
10.03.2018 04:38 8,1 C 7,8 C 6,7 C 98 % 15 lf 999,2 hPa 0,0 l/m 0 min 0 min 0 W/m 18,0 km/h (3 Bft) 93,62 %
10.03.2018 04:40 8,1 C 7,8 C 6,7 C 99 % 15 lf 999,2 hPa 0,0 l/m 0 min 0 min 0 W/m 15,8 km/h (3 Bft) 95,74 %
10.03.2018 04:42 8,1 C 7,8 C 6,7 C 99 % 15 lf 999,1 hPa 0,0 l/m 0 min 0 min 0 W/m 18,0 km/h (3 Bft) 97,87 %
10.03.2018 04:44 8,1 C 7,8 C 6,7 C 99 % 15 lf 999,2 hPa 0,0 l/m 0 min 0 min 0 W/m 18,0 km/h (3 Bft) 95,74 %
10.03.2018 04:46 8,1 C 7,8 C 6,7 C 99 % 15 lf 999,1 hPa 0,0 l/m 0 min 0 min 0 W/m 15,8 km/h (3 Bft) 97,83 %
10.03.2018 04:48 8,1 C 7,8 C 6,7 C 99 % 15 lf 999,1 hPa 0,0 l/m 0 min 0 min 0 W/m 13,5 km/h (3 Bft) 97,87 %
10.03.2018 04:50 8,1 C 7,8 C 6,7 C 99 % 15 lf 999,1 hPa 0,0 l/m 0 min 0 min 0 W/m 18,0 km/h (3 Bft) 95,74 %
10.03.2018 04:52 8,1 C 7,8 C 6,7 C 99 % 15 lf 999,1 hPa 0,0 l/m 0 min 0 min 0 W/m 15,8 km/h (3 Bft) 95,74 %
10.03.2018 04:54 8,1 C 7,8 C 6,7 C 99 % 15 lf 999,1 hPa 0,0 l/m 0 min 0 min 0 W/m 15,8 km/h (3 Bft) 97,87 %
10.03.2018 04:56 8,1 C 7,8 C 6,7 C 99 % 15 lf 999,0 hPa 0,0 l/m 0 min 0 min 0 W/m 13,5 km/h (3 Bft) 93,62 %
10.03.2018 04:58 8,1 C 7,8 C 6,7 C 99 % 15 lf 999,1 hPa 0,0 l/m 0 min 0 min 0 W/m 11,3 km/h (2 Bft) 97,83 %
10.03.2018 05:00 8,1 C 7,8 C 6,7 C 99 % 15 lf 999,0 hPa 0,0 l/m 0 min 0 min 0 W/m 11,3 km/h (2 Bft) 95,74 %
10.03.2018 05:02 8,1 C 7,8 C 6,1 C 99 % 15 lf 999,0 hPa 0,0 l/m 0 min 0 min 0 W/m 18,0 km/h (3 Bft) 95,74 %
10.03.2018 05:04 8,1 C 7,8 C 6,1 C 99 % 15 lf 999,0 hPa 0,0 l/m 0 min 0 min 0 W/m 13,5 km/h (3 Bft) 95,74 %
10.03.2018 05:08 8,0 C 7,8 C 6,1 C 99 % 15 lf 999,0 hPa 0,0 l/m 0 min 0 min 0 W/m 13,5 km/h (3 Bft) 92,55 %
10.03.2018 05:10 8,0 C 7,8 C 6,1 C 99 % 15 lf 999,0 hPa 0,0 l/m 0 min 0 min 0 W/m 18,0 km/h (3 Bft) 95,65 %
10.03.2018 05:12 8,0 C 7,8 C 6,1 C 99 % 15 lf 998,9 hPa 0,0 l/m 0 min 0 min 0 W/m 15,8 km/h (3 Bft) 95,74 %
10.03.2018 05:14 7,9 C 7,8 C 6,1 C 99 % 15 lf 998,9 hPa 0,0 l/m 0 min 0 min 0 W/m 20,3 km/h (4 Bft) 97,87 %
10.03.2018 05:16 7,9 C 7,2 C 6,1 C 99 % 15 lf 998,9 hPa 0,0 l/m 0 min 0 min 0 W/m 15,8 km/h (3 Bft) 95,74 %
10.03.2018 05:18 7,9 C 7,2 C 6,1 C 98 % 15 lf 999,0 hPa 0,0 l/m 0 min 0 min 0 W/m 18,0 km/h (3 Bft) 97,87 %
10.03.2018 05:20 7,9 C 7,2 C 6,1 C 98 % 15 lf 999,0 hPa 0,0 l/m 0 min 0 min 0 W/m 15,8 km/h (3 Bft) 97,87 %
10.03.2018 05:22 7,9 C 7,2 C 6,1 C 98 % 15 lf 999,0 hPa 0,0 l/m 0 min 0 min 0 W/m 13,5 km/h (3 Bft) 97,83 %
10.03.2018 05:24 7,9 C 7,2 C 6,1 C 98 % 15 lf 999,0 hPa 0,0 l/m 0 min 0 min 0 W/m 20,3 km/h (4 Bft) 95,74 %
10.03.2018 05:26 7,9 C 7,2 C 6,1 C 98 % 15 lf 999,0 hPa 0,0 l/m 0 min 0 min 0 W/m 11,3 km/h (2 Bft) 97,87 %
10.03.2018 05:28 7,9 C 7,2 C 6,1 C 98 % 15 lf 999,0 hPa 0,0 l/m 0 min 0 min 0 W/m 15,8 km/h (3 Bft) 97,87 %
10.03.2018 05:30 7,8 C 7,2 C 6,1 C 98 % 15 lf 998,9 hPa 0,0 l/m 0 min 0 min 0 W/m 18,0 km/h (3 Bft) 95,74 %
10.03.2018 05:32 7,8 C 7,2 C 6,1 C 98 % 15 lf 998,9 hPa 0,0 l/m 0 min 0 min 0 W/m 13,5 km/h (3 Bft) 97,92 %
10.03.2018 05:34 7,8 C 7,2 C 6,1 C 99 % 15 lf 998,9 hPa 0,0 l/m 0 min 0 min 0 W/m 18,0 km/h (3 Bft) 97,83 %
10.03.2018 05:35 7,8 C 7,2 C 6,1 C 99 % 15 lf 998,9 hPa 0,0 l/m 0 min 0 min 0 W/m 18,0 km/h (3 Bft) 100,00 %
10.03.2018 05:40 7,8 C 7,2 C 6,1 C 99 % 15 lf 998,9 hPa 0,0 l/m 0 min 0 min 0 W/m 15,8 km/h (3 Bft) 100,00 %
10.03.2018 05:42 7,8 C 7,2 C 6,1 C 99 % 15 lf 999,0 hPa 0,0 l/m 0 min 0 min 0 W/m 15,8 km/h (3 Bft) 98,28 %
10.03.2018 05:44 7,8 C 7,2 C 6,1 C 99 % 15 lf 999,0 hPa 0,0 l/m 0 min 0 min 0 W/m 15,8 km/h (3 Bft) 100,00 %
10.03.2018 05:46 7,8 C 7,2 C 6,1 C 99 % 15 lf 998,9 hPa 0,0 l/m 0 min 0 min 0 W/m 13,5 km/h (3 Bft) 100,00 %
10.03.2018 05:48 7,8 C 7,2 C 6,1 C 99 % 15 lf 998,9 hPa 0,0 l/m 0 min 0 min 0 W/m 15,8 km/h (3 Bft) 100,00 %
10.03.2018 05:50 7,8 C 7,2 C 6,1 C 99 % 15 lf 998,9 hPa 0,0 l/m 0 min 0 min 0 W/m 15,8 km/h (3 Bft) 98,15 %
10.03.2018 05:52 7,8 C 7,2 C 6,1 C 99 % 15 lf 998,8 hPa 0,0 l/m 0 min 0 min 0 W/m 18,0 km/h (3 Bft) 97,96 %
10.03.2018 05:54 7,8 C 7,2 C 6,1 C 99 % 15 lf 998,8 hPa 0,0 l/m 0 min 0 min 0 W/m 20,3 km/h (4 Bft) 100,00 %
10.03.2018 05:56 7,8 C 7,2 C 6,1 C 99 % 15 lf 998,9 hPa 0,0 l/m 0 min 0 min 0 W/m 15,8 km/h (3 Bft) 97,14 %
10.03.2018 05:58 7,8 C 7,2 C 6,1 C 99 % 15 lf 998,9 hPa 0,0 l/m 0 min 0 min 0 W/m 13,5 km/h (3 Bft) 100,00 %
10.03.2018 06:00 7,8 C 7,2 C 6,1 C 99 % 15 lf 998,9 hPa 0,0 l/m 0 min 0 min 0 W/m 15,8 km/h (3 Bft) 100,00 %
10.03.2018 06:02 7,8 C 7,2 C 6,1 C 99 % 15 lf 998,8 hPa 0,0 l/m 0 min 0 min 0 W/m 11,3 km/h (2 Bft) 100,00 %
10.03.2018 06:04 7,7 C 7,2 C 6,1 C 99 % 15 lf 998,8 hPa 0,0 l/m 0 min 0 min 0 W/m 13,5 km/h (3 Bft) 97,83 %
10.03.2018 06:06 7,7 C 7,2 C 6,1 C 99 % 15 lf 998,8 hPa 0,0 l/m 0 min 0 min 0 W/m 11,3 km/h (2 Bft) 98,18 %
10.03.2018 06:08 7,7 C 7,2 C 6,1 C 99 % 15 lf 998,8 hPa 0,0 l/m 0 min 0 min 0 W/m 11,3 km/h (2 Bft) 100,00 %
10.03.2018 06:10 7,7 C 7,2 C 6,1 C 99 % 15 lf 998,8 hPa 0,0 l/m 0 min 0 min 0 W/m 13,5 km/h (3 Bft) 100,00 %
10.03.2018 06:12 7,8 C 7,2 C 6,1 C 99 % 15 lf 998,8 hPa 0,0 l/m 0 min 0 min 0 W/m 13,5 km/h (3 Bft) 100,00 %
10.03.2018 06:14 7,7 C 7,2 C 6,1 C 99 % 15 lf 998,8 hPa 0,0 l/m 0 min 0 min 0 W/m 18,0 km/h (3 Bft) 100,00 %
10.03.2018 06:16 7,7 C 7,2 C 6,1 C 99 % 15 lf 998,8 hPa 0,0 l/m 0 min 0 min 0 W/m 13,5 km/h (3 Bft) 100,00 %
10.03.2018 06:18 7,7 C 7,2 C 6,1 C 99 % 15 lf 998,8 hPa 0,0 l/m 0 min 0 min 0 W/m 11,3 km/h (2 Bft) 96,72 %
10.03.2018 06:20 7,8 C 7,2 C 6,1 C 99 % 15 lf 998,8 hPa 0,0 l/m 0 min 0 min 0 W/m 13,5 km/h (3 Bft) 97,87 %
10.03.2018 06:22 7,8 C 7,2 C 6,1 C 99 % 15 lf 998,8 hPa 0,0 l/m 0 min 0 min 0 W/m 15,8 km/h (3 Bft) 95,74 %
10.03.2018 06:24 7,7 C 7,2 C 6,1 C 99 % 15 lf 998,8 hPa 0,0 l/m 0 min 0 min 0 W/m 18,0 km/h (3 Bft) 97,87 %
10.03.2018 06:26 7,7 C 7,2 C 6,1 C 99 % 15 lf 998,8 hPa 0,0 l/m 0 min 0 min 0 W/m 13,5 km/h (3 Bft) 95,74 %
10.03.2018 06:28 7,8 C 7,2 C 6,1 C 99 % 15 lf 998,8 hPa 0,0 l/m 0 min 0 min 0 W/m 13,5 km/h (3 Bft) 95,65 %
10.03.2018 06:30 7,8 C 7,2 C 6,1 C 99 % 15 lf 998,8 hPa 0,0 l/m 0 min 0 min 0 W/m 13,5 km/h (3 Bft) 97,87 %
10.03.2018 06:32 7,8 C 7,2 C 6,1 C 99 % 15 lf 998,8 hPa 0,0 l/m 0 min 0 min 0 W/m 13,5 km/h (3 Bft) 97,87 %
10.03.2018 06:34 7,8 C 7,2 C 6,1 C 99 % 15 lf 998,8 hPa 0,0 l/m 0 min 0 min 0 W/m 13,5 km/h (3 Bft) 93,62 %
10.03.2018 06:36 7,8 C 7,2 C 6,1 C 99 % 15 lf 998,8 hPa 0,0 l/m 0 min 0 min 0 W/m 13,5 km/h (3 Bft) 95,74 %
10.03.2018 06:38 7,8 C 7,2 C 6,1 C 99 % 15 lf 998,8 hPa 0,0 l/m 0 min 0 min 0 W/m 13,5 km/h (3 Bft) 90,74 %
10.03.2018 06:40 7,8 C 7,2 C 6,1 C 99 % 15 lf 998,8 hPa 0,0 l/m 0 min 0 min 0 W/m 15,8 km/h (3 Bft) 97,87 %
10.03.2018 06:42 7,8 C 7,2 C 6,1 C 99 % 15 lf 998,8 hPa 0,0 l/m 0 min 0 min 0 W/m 13,5 km/h (3 Bft) 95,74 %
10.03.2018 06:44 7,8 C 7,2 C 6,1 C 99 % 15 lf 998,8 hPa 0,0 l/m 0 min 0 min 0 W/m 13,5 km/h (3 Bft) 97,87 %
10.03.2018 06:46 7,8 C 7,8 C 6,1 C 99 % 15 lf 998,8 hPa 0,0 l/m 0 min 0 min 0 W/m 13,5 km/h (3 Bft) 93,62 %
10.03.2018 06:48 7,8 C 7,8 C 6,1 C 99 % 15 lf 998,8 hPa 0,0 l/m 0 min 0 min 0 W/m 18,0 km/h (3 Bft) 97,87 %
10.03.2018 06:50 7,8 C 7,8 C 6,1 C 99 % 15 lf 998,8 hPa 0,0 l/m 0 min 0 min 0 W/m 15,8 km/h (3 Bft) 97,14 %
10.03.2018 06:52 7,8 C 7,8 C 6,1 C 99 % 15 lf 998,8 hPa 0,0 l/m 0 min 0 min 0 W/m 11,3 km/h (2 Bft) 95,92 %
10.03.2018 06:54 7,8 C 7,8 C 6,1 C 99 % 15 lf 998,8 hPa 0,0 l/m 0 min 0 min 0 W/m 13,5 km/h (3 Bft) 97,87 %
10.03.2018 06:56 7,8 C 7,8 C 6,1 C 99 % 15 lf 998,8 hPa 0,0 l/m 0 min 0 min 2 W/m 18,0 km/h (3 Bft) 93,62 %
10.03.2018 06:58 7,8 C 7,8 C 6,1 C 99 % 15 lf 998,9 hPa 0,0 l/m 0 min 0 min 5 W/m 15,8 km/h (3 Bft) 95,83 %
10.03.2018 07:00 7,8 C 7,8 C 6,1 C 99 % 15 lf 998,9 hPa 0,0 l/m 0 min 0 min 5 W/m 15,8 km/h (3 Bft) 95,74 %
10.03.2018 07:02 7,8 C 7,8 C 6,1 C 99 % 15 lf 998,8 hPa 0,0 l/m 0 min 0 min 5 W/m 18,0 km/h (3 Bft) 94,44 %
10.03.2018 07:04 7,8 C 7,8 C 6,7 C 99 % 15 lf 998,9 hPa 0,0 l/m 0 min 0 min 5 W/m 13,5 km/h (3 Bft) 93,62 %
10.03.2018 07:06 7,8 C 7,8 C 6,7 C 99 % 15 lf 998,9 hPa 0,0 l/m 0 min 0 min 5 W/m 15,8 km/h (3 Bft) 92,11 %
10.03.2018 07:08 7,8 C 7,8 C 6,7 C 99 % 15 lf 998,9 hPa 0,0 l/m 0 min 0 min 7 W/m 15,8 km/h (3 Bft) 93,75 %
10.03.2018 07:10 7,8 C 7,8 C 6,7 C 99 % 15 lf 998,9 hPa 0,0 l/m 0 min 0 min 7 W/m 15,8 km/h (3 Bft) 95,74 %
10.03.2018 07:12 7,8 C 7,8 C 6,7 C 99 % 15 lf 998,9 hPa 0,0 l/m 0 min 0 min 9 W/m 11,3 km/h (2 Bft) 93,62 %
10.03.2018 07:14 7,8 C 7,8 C 6,7 C 99 % 15 lf 998,8 hPa 0,0 l/m 0 min 0 min 11 W/m 11,3 km/h (2 Bft) 93,48 %
10.03.2018 07:16 7,8 C 7,8 C 6,7 C 99 % 15 lf 998,9 hPa 0,0 l/m 0 min 0 min 11 W/m 9,0 km/h (2 Bft) 93,62 %
10.03.2018 07:18 7,8 C 7,8 C 6,7 C 99 % 15 lf 998,9 hPa 0,0 l/m 0 min 0 min 13 W/m 11,3 km/h (2 Bft) 96,36 %
10.03.2018 07:20 7,8 C 7,8 C 6,7 C 99 % 15 lf 998,9 hPa 0,0 l/m 0 min 0 min 15 W/m 13,5 km/h (3 Bft) 94,00 %
10.03.2018 07:22 7,8 C 7,8 C 6,7 C 99 % 15 lf 998,9 hPa 0,0 l/m 0 min 0 min 18 W/m 13,5 km/h (3 Bft) 91,43 %
10.03.2018 07:24 7,9 C 7,8 C 6,7 C 99 % 15 lf 998,9 hPa 0,0 l/m 0 min 0 min 22 W/m 15,8 km/h (3 Bft) 93,62 %
10.03.2018 07:26 7,9 C 7,8 C 6,7 C 99 % 15 lf 998,9 hPa 0,0 l/m 0 min 0 min 26 W/m 13,5 km/h (3 Bft) 93,48 %
10.03.2018 07:28 7,9 C 7,8 C 6,7 C 99 % 15 lf 998,9 hPa 0,0 l/m 0 min 0 min 27 W/m 11,3 km/h (2 Bft) 93,75 %
10.03.2018 07:30 7,9 C 7,8 C 6,7 C 99 % 15 lf 999,0 hPa 0,0 l/m 0 min 0 min 28 W/m 11,3 km/h (2 Bft) 93,62 %
10.03.2018 07:32 7,9 C 7,8 C 6,7 C 99 % 15 lf 998,9 hPa 0,0 l/m 0 min 0 min 29 W/m 15,8 km/h (3 Bft) 92,73 %
10.03.2018 07:34 7,9 C 7,8 C 6,7 C 99 % 15 lf 998,9 hPa 0,0 l/m 0 min 0 min 33 W/m 18,0 km/h (3 Bft) 97,87 %
10.03.2018 07:36 7,9 C 7,8 C 6,7 C 99 % 15 lf 998,8 hPa 0,0 l/m 0 min 0 min 33 W/m 18,0 km/h (3 Bft) 92,11 %
10.03.2018 07:38 7,9 C 7,8 C 6,7 C 99 % 15 lf 998,8 hPa 0,0 l/m 0 min 0 min 34 W/m 15,8 km/h (3 Bft) 95,65 %
10.03.2018 07:40 8,0 C 7,8 C 6,7 C 99 % 15 lf 998,9 hPa 0,0 l/m 0 min 0 min 38 W/m 13,5 km/h (3 Bft) 95,83 %
10.03.2018 07:42 8,0 C 7,8 C 6,7 C 99 % 15 lf 998,8 hPa 0,0 l/m 0 min 0 min 39 W/m 15,8 km/h (3 Bft) 89,36 %
10.03.2018 07:44 8,0 C 7,8 C 6,7 C 99 % 15 lf 998,9 hPa 0,0 l/m 0 min 0 min 38 W/m 13,5 km/h (3 Bft) 92,73 %
10.03.2018 07:46 8,0 C 7,8 C 6,7 C 99 % 15 lf 998,8 hPa 0,0 l/m 0 min 0 min 37 W/m 11,3 km/h (2 Bft) 93,62 %
10.03.2018 07:48 8,0 C 7,8 C 6,7 C 99 % 15 lf 998,9 hPa 0,0 l/m 0 min 0 min 37 W/m 13,5 km/h (3 Bft) 97,37 %
10.03.2018 07:50 8,0 C 7,8 C 6,7 C 99 % 15 lf 998,9 hPa 0,0 l/m 0 min 0 min 39 W/m 15,8 km/h (3 Bft) 94,83 %
10.03.2018 07:52 8,0 C 7,8 C 6,7 C 99 % 15 lf 998,9 hPa 0,0 l/m 0 min 0 min 41 W/m 11,3 km/h (2 Bft) 94,29 %
10.03.2018 07:54 8,0 C 7,8 C 6,7 C 99 % 15 lf 998,9 hPa 0,0 l/m 0 min 0 min 45 W/m 9,0 km/h (2 Bft) 93,62 %
10.03.2018 07:56 8,0 C 7,8 C 6,7 C 99 % 15 lf 998,9 hPa 0,0 l/m 0 min 0 min 52 W/m 11,3 km/h (2 Bft) 95,83 %
10.03.2018 07:58 8,1 C 8,3 C 6,7 C 99 % 15 lf 998,9 hPa 0,0 l/m 0 min 0 min 54 W/m 9,0 km/h (2 Bft) 95,74 %
10.03.2018 08:00 8,1 C 8,3 C 6,7 C 99 % 15 lf 998,9 hPa 0,0 l/m 0 min 0 min 51 W/m 13,5 km/h (3 Bft) 91,49 %
10.03.2018 08:02 8,1 C 7,8 C 6,7 C 99 % 15 lf 998,9 hPa 0,0 l/m 0 min 0 min 51 W/m 13,5 km/h (3 Bft) 89,13 %
10.03.2018 08:04 8,1 C 8,3 C 6,7 C 99 % 15 lf 999,0 hPa 0,0 l/m 0 min 0 min 54 W/m 9,0 km/h (2 Bft) 97,87 %
10.03.2018 08:08 8,1 C 8,3 C 6,7 C 99 % 15 lf 999,0 hPa 0,0 l/m 0 min 0 min 59 W/m 13,5 km/h (3 Bft) 96,74 %
10.03.2018 08:10 8,1 C 8,3 C 6,7 C 99 % 15 lf 999,0 hPa 0,0 l/m 0 min 0 min 64 W/m 13,5 km/h (3 Bft) 95,74 %
10.03.2018 08:12 8,1 C 8,3 C 6,7 C 99 % 15 lf 999,0 hPa 0,0 l/m 0 min 0 min 74 W/m 9,0 km/h (2 Bft) 97,96 %
10.03.2018 08:14 8,1 C 8,3 C 6,7 C 99 % 15 lf 999,0 hPa 0,0 l/m 0 min 0 min 64 W/m 11,3 km/h (2 Bft) 100,00 %
10.03.2018 08:16 8,1 C 8,3 C 6,7 C 99 % 15 lf 999,0 hPa 0,0 l/m 0 min 0 min 63 W/m 11,3 km/h (2 Bft) 100,00 %
10.03.2018 08:18 8,1 C 8,3 C 6,7 C 99 % 15 lf 999,0 hPa 0,0 l/m 0 min 0 min 66 W/m 13,5 km/h (3 Bft) 100,00 %
10.03.2018 08:20 8,1 C 8,3 C 6,7 C 99 % 15 lf 999,1 hPa 0,0 l/m 0 min 0 min 85 W/m 11,3 km/h (2 Bft) 96,55 %
10.03.2018 08:22 8,1 C 8,9 C 6,7 C 99 % 15 lf 999,1 hPa 0,0 l/m 2 min 0 min 102 W/m 13,5 km/h (3 Bft) 100,00 %
10.03.2018 08:24 8,2 C 10,0 C 6,7 C 99 % 15 lf 999,1 hPa 0,0 l/m 2 min 0 min 171 W/m 13,5 km/h (3 Bft) 100,00 %
10.03.2018 08:26 8,2 C 10,6 C 6,7 C 99 % 15 lf 999,1 hPa 0,0 l/m 2 min 0 min 183 W/m 13,5 km/h (3 Bft) 97,87 %
10.03.2018 08:28 8,2 C 10,6 C 6,7 C 99 % 15 lf 999,1 hPa 0,0 l/m 2 min 0 min 178 W/m 13,5 km/h (3 Bft) 97,87 %
10.03.2018 08:30 8,3 C 10,6 C 6,7 C 99 % 15 lf 999,1 hPa 0,0 l/m 2 min 0 min 166 W/m 15,8 km/h (3 Bft) 98,18 %
10.03.2018 08:32 8,4 C 11,1 C 7,2 C 99 % 15 lf 999,1 hPa 0,0 l/m 2 min 0 min 191 W/m 15,8 km/h (3 Bft) 100,00 %
10.03.2018 08:34 8,4 C 11,1 C 7,2 C 99 % 15 lf 999,1 hPa 0,0 l/m 2 min 0 min 201 W/m 18,0 km/h (3 Bft) 100,00 %
10.03.2018 08:36 8,5 C 11,7 C 7,2 C 99 % 15 lf 999,1 hPa 0,0 l/m 2 min 0 min 227 W/m 13,5 km/h (3 Bft) 97,87 %
10.03.2018 08:38 8,6 C 11,7 C 7,2 C 99 % 14 lf 999,1 hPa 0,0 l/m 2 min 0 min 237 W/m 15,8 km/h (3 Bft) 97,87 %
10.03.2018 08:40 8,7 C 12,2 C 7,8 C 99 % 13 lf 999,1 hPa 0,0 l/m 2 min 0 min 247 W/m 15,8 km/h (3 Bft) 100,00 %
10.03.2018 08:42 8,8 C 12,2 C 7,8 C 99 % 12 lf 999,1 hPa 0,0 l/m 2 min 0 min 266 W/m 15,8 km/h (3 Bft) 95,74 %
10.03.2018 08:44 8,9 C 12,2 C 8,3 C 99 % 10 lf 999,2 hPa 0,0 l/m 2 min 0 min 274 W/m 18,0 km/h (3 Bft) 100,00 %
10.03.2018 08:46 9,0 C 12,2 C 8,9 C 99 % 5 lf 999,2 hPa 0,0 l/m 2 min 0 min 310 W/m 18,0 km/h (3 Bft) 100,00 %
10.03.2018 08:48 9,1 C 12,2 C 8,9 C 99 % 3 lf 999,2 hPa 0,0 l/m 2 min 0 min 319 W/m 18,0 km/h (3 Bft) 100,00 %
10.03.2018 08:50 9,2 C 12,2 C 9,4 C 99 % 2 lf 999,2 hPa 0,0 l/m 2 min 0 min 311 W/m 18,0 km/h (3 Bft) 100,00 %
10.03.2018 08:52 9,3 C 11,7 C 9,4 C 99 % 1 lf 999,2 hPa 0,0 l/m 2 min 0 min 232 W/m 15,8 km/h (3 Bft) 95,74 %
10.03.2018 08:54 9,4 C 10,6 C 8,9 C 99 % 1 lf 999,3 hPa 0,0 l/m 0 min 0 min 131 W/m 18,0 km/h (3 Bft) 97,37 %
10.03.2018 08:56 9,4 C 10,0 C 8,9 C 99 % 1 lf 999,2 hPa 0,0 l/m 0 min 0 min 114 W/m 13,5 km/h (3 Bft) 97,92 %
10.03.2018 08:58 9,4 C 10,0 C 8,9 C 99 % 1 lf 999,2 hPa 0,0 l/m 0 min 0 min 115 W/m 18,0 km/h (3 Bft) 100,00 %
10.03.2018 09:00 9,5 C 10,0 C 8,9 C 99 % 1 lf 999,2 hPa 0,0 l/m 0 min 0 min 117 W/m 20,3 km/h (4 Bft) 100,00 %
10.03.2018 09:02 9,5 C 10,0 C 8,9 C 99 % 1 lf 999,3 hPa 0,0 l/m 0 min 0 min 114 W/m 20,3 km/h (4 Bft) 95,74 %
10.03.2018 09:04 9,6 C 10,0 C 8,9 C 99 % 1 lf 999,2 hPa 0,0 l/m 0 min 0 min 116 W/m 11,3 km/h (2 Bft) 95,74 %
10.03.2018 09:08 9,6 C 10,0 C 8,9 C 99 % 1 lf 999,2 hPa 0,0 l/m 0 min 0 min 114 W/m 15,8 km/h (3 Bft) 95,74 %
10.03.2018 09:10 9,6 C 10,6 C 8,9 C 99 % 1 lf 999,2 hPa 0,0 l/m 0 min 0 min 109 W/m 18,0 km/h (3 Bft) 93,62 %
10.03.2018 09:12 9,7 C 10,6 C 8,9 C 99 % 1 lf 999,2 hPa 0,0 l/m 0 min 0 min 106 W/m 13,5 km/h (3 Bft) 93,48 %
10.03.2018 09:14 9,7 C 10,6 C 8,9 C 99 % 1 lf 999,2 hPa 0,0 l/m 0 min 0 min 106 W/m 15,8 km/h (3 Bft) 91,49 %
10.03.2018 09:16 9,7 C 10,6 C 8,9 C 99 % 1 lf 999,2 hPa 0,0 l/m 0 min 0 min 109 W/m 18,0 km/h (3 Bft) 95,74 %
10.03.2018 09:18 9,7 C 10,6 C 8,9 C 99 % 1 lf 999,2 hPa 0,0 l/m 0 min 0 min 115 W/m 18,0 km/h (3 Bft) 95,74 %
10.03.2018 09:20 9,8 C 11,1 C 8,9 C 99 % 1 lf 999,2 hPa 0,0 l/m 0 min 0 min 123 W/m 18,0 km/h (3 Bft) 96,23 %
10.03.2018 09:22 9,8 C 11,1 C 9,4 C 99 % 1 lf 999,3 hPa 0,0 l/m 0 min 0 min 131 W/m 11,3 km/h (2 Bft) 95,65 %
10.03.2018 09:24 9,8 C 11,1 C 9,4 C 99 % 1 lf 999,2 hPa 0,0 l/m 0 min 0 min 133 W/m 13,5 km/h (3 Bft) 93,62 %
10.03.2018 09:26 9,9 C 11,1 C 9,4 C 99 % 1 lf 999,2 hPa 0,0 l/m 0 min 0 min 136 W/m 15,8 km/h (3 Bft) 95,74 %
10.03.2018 09:28 9,9 C 11,1 C 9,4 C 99 % 1 lf 999,2 hPa 0,0 l/m 0 min 0 min 138 W/m 13,5 km/h (3 Bft) 94,74 %
10.03.2018 09:30 9,9 C 11,1 C 9,4 C 99 % 0 lf 999,2 hPa 0,0 l/m 0 min 0 min 134 W/m 15,8 km/h (3 Bft) 92,98 %
10.03.2018 09:32 10,0 C 11,1 C 9,4 C 99 % 0 lf 999,1 hPa 0,0 l/m 0 min 0 min 127 W/m 11,3 km/h (2 Bft) 95,65 %
10.03.2018 09:34 10,0 C 11,1 C 9,4 C 99 % 0 lf 999,2 hPa 0,0 l/m 0 min 0 min 115 W/m 13,5 km/h (3 Bft) 95,74 %
10.03.2018 09:36 10,1 C 11,1 C 9,4 C 99 % 0 lf 999,2 hPa 0,0 l/m 0 min 0 min 113 W/m 18,0 km/h (3 Bft) 93,62 %
10.03.2018 09:38 10,1 C 11,1 C 9,4 C 99 % 0 lf 999,2 hPa 0,0 l/m 0 min 0 min 118 W/m 11,3 km/h (2 Bft) 92,11 %
10.03.2018 09:40 10,1 C 11,1 C 9,4 C 98 % 0 lf 999,2 hPa 0,0 l/m 0 min 0 min 124 W/m 15,8 km/h (3 Bft) 95,92 %
10.03.2018 09:42 10,2 C 11,1 C 9,4 C 98 % 0 lf 999,2 hPa 0,0 l/m 0 min 0 min 127 W/m 11,3 km/h (2 Bft) 97,87 %
10.03.2018 09:44 10,2 C 11,1 C 9,4 C 98 % 0 lf 999,2 hPa 0,0 l/m 0 min 0 min 130 W/m 11,3 km/h (2 Bft) 95,74 %
10.03.2018 09:46 10,2 C 11,7 C 9,4 C 98 % 0 lf 999,2 hPa 0,0 l/m 0 min 0 min 133 W/m 9,0 km/h (2 Bft) 93,62 %
10.03.2018 09:48 10,3 C 11,7 C 10,0 C 98 % 0 lf 999,2 hPa 0,0 l/m 0 min 0 min 135 W/m 6,8 km/h (2 Bft) 100,00 %
10.03.2018 09:50 10,3 C 11,7 C 10,0 C 98 % 0 lf 999,2 hPa 0,0 l/m 0 min 0 min 138 W/m 6,8 km/h (2 Bft) 100,00 %
10.03.2018 09:52 10,4 C 11,7 C 10,0 C 98 % 0 lf 999,2 hPa 0,0 l/m 0 min 0 min 140 W/m 11,3 km/h (2 Bft) 95,74 %
10.03.2018 09:54 10,4 C 11,7 C 10,0 C 98 % 0 lf 999,2 hPa 0,0 l/m 0 min 0 min 140 W/m 18,0 km/h (3 Bft) 100,00 %
10.03.2018 09:56 10,4 C 11,7 C 10,0 C 98 % 0 lf 999,2 hPa 0,0 l/m 0 min 0 min 138 W/m 18,0 km/h (3 Bft) 98,00 %
10.03.2018 09:58 10,4 C 11,7 C 10,0 C 98 % 0 lf 999,2 hPa 0,0 l/m 0 min 0 min 135 W/m 15,8 km/h (3 Bft) 100,00 %
10.03.2018 10:00 10,5 C 11,7 C 10,0 C 98 % 0 lf 999,3 hPa 0,0 l/m 0 min 0 min 131 W/m 18,0 km/h (3 Bft) 100,00 %
10.03.2018 10:02 10,6 C 11,7 C 10,0 C 98 % 0 lf 999,3 hPa 0,0 l/m 0 min 0 min 127 W/m 18,0 km/h (3 Bft) 95,83 %
10.03.2018 10:04 10,6 C 11,7 C 10,0 C 97 % 0 lf 999,3 hPa 0,0 l/m 0 min 0 min 121 W/m 13,5 km/h (3 Bft) 97,87 %
10.03.2018 10:06 10,6 C 11,7 C 10,0 C 97 % 0 lf 999,3 hPa 0,0 l/m 0 min 0 min 121 W/m 9,0 km/h (2 Bft) 100,00 %
10.03.2018 10:08 10,7 C 11,7 C 10,0 C 97 % 0 lf 999,3 hPa 0,0 l/m 0 min 0 min 127 W/m 6,8 km/h (2 Bft) 96,00 %
10.03.2018 10:10 10,7 C 11,7 C 10,0 C 97 % 0 lf 999,2 hPa 0,0 l/m 0 min 0 min 135 W/m 9,0 km/h (2 Bft) 97,83 %
10.03.2018 10:12 10,7 C 12,2 C 10,0 C 97 % 0 lf 999,2 hPa 0,0 l/m 0 min 0 min 145 W/m 13,5 km/h (3 Bft) 97,96 %
10.03.2018 10:14 10,8 C 12,2 C 10,0 C 97 % 0 lf 999,2 hPa 0,0 l/m 0 min 0 min 151 W/m 9,0 km/h (2 Bft) 100,00 %
10.03.2018 10:16 10,8 C 12,2 C 10,0 C 96 % 0 lf 999,2 hPa 0,0 l/m 0 min 0 min 155 W/m 13,5 km/h (3 Bft) 100,00 %
10.03.2018 10:18 10,8 C 12,2 C 10,0 C 96 % 0 lf 999,2 hPa 0,0 l/m 0 min 0 min 151 W/m 13,5 km/h (3 Bft) 96,43 %
10.03.2018 10:20 10,9 C 12,2 C 10,0 C 96 % 0 lf 999,3 hPa 0,0 l/m 0 min 0 min 146 W/m 15,8 km/h (3 Bft) 100,00 %
10.03.2018 10:22 10,9 C 12,2 C 10,6 C 96 % 0 lf 999,3 hPa 0,0 l/m 0 min 0 min 144 W/m 11,3 km/h (2 Bft) 100,00 %
10.03.2018 10:24 11,0 C 12,2 C 10,6 C 96 % 0 lf 999,3 hPa 0,0 l/m 0 min 0 min 146 W/m 11,3 km/h (2 Bft) 100,00 %
10.03.2018 10:26 11,0 C 12,2 C 10,6 C 95 % 0 lf 999,4 hPa 0,0 l/m 0 min 0 min 149 W/m 11,3 km/h (2 Bft) 97,87 %
10.03.2018 10:28 11,1 C 12,2 C 10,6 C 95 % 0 lf 999,4 hPa 0,0 l/m 0 min 0 min 151 W/m 15,8 km/h (3 Bft) 95,74 %
10.03.2018 10:30 11,1 C 12,2 C 10,6 C 95 % 0 lf 999,4 hPa 0,0 l/m 0 min 0 min 154 W/m 11,3 km/h (2 Bft) 95,74 %
10.03.2018 10:32 11,2 C 12,2 C 10,6 C 95 % 0 lf 999,5 hPa 0,0 l/m 0 min 0 min 160 W/m 13,5 km/h (3 Bft) 95,65 %
10.03.2018 10:34 11,2 C 12,8 C 10,6 C 95 % 0 lf 999,4 hPa 0,0 l/m 0 min 0 min 164 W/m 18,0 km/h (3 Bft) 93,62 %
10.03.2018 10:36 11,2 C 12,8 C 10,6 C 94 % 0 lf 999,5 hPa 0,0 l/m 0 min 0 min 170 W/m 13,5 km/h (3 Bft) 91,84 %
10.03.2018 10:38 11,3 C 12,8 C 10,6 C 94 % 0 lf 999,4 hPa 0,0 l/m 0 min 0 min 175 W/m 18,0 km/h (3 Bft) 97,14 %
10.03.2018 10:40 11,3 C 12,8 C 10,6 C 94 % 0 lf 999,5 hPa 0,0 l/m 0 min 0 min 170 W/m 13,5 km/h (3 Bft) 94,55 %
10.03.2018 10:42 11,4 C 12,8 C 10,6 C 94 % 0 lf 999,4 hPa 0,0 l/m 0 min 0 min 164 W/m 15,8 km/h (3 Bft) 93,62 %
10.03.2018 10:44 11,4 C 12,8 C 10,6 C 93 % 0 lf 999,5 hPa 0,0 l/m 0 min 0 min 162 W/m 13,5 km/h (3 Bft) 95,92 %
10.03.2018 10:46 11,5 C 12,8 C 10,6 C 93 % 0 lf 999,4 hPa 0,0 l/m 0 min 0 min 162 W/m 13,5 km/h (3 Bft) 93,62 %
10.03.2018 10:48 11,5 C 12,8 C 10,6 C 93 % 0 lf 999,4 hPa 0,0 l/m 0 min 0 min 160 W/m 13,5 km/h (3 Bft) 93,62 %
10.03.2018 10:50 11,6 C 12,8 C 10,6 C 93 % 0 lf 999,4 hPa 0,0 l/m 0 min 0 min 159 W/m 11,3 km/h (2 Bft) 95,74 %
10.03.2018 10:52 11,6 C 12,8 C 11,1 C 93 % 0 lf 999,4 hPa 0,0 l/m 0 min 0 min 166 W/m 18,0 km/h (3 Bft) 92,11 %
10.03.2018 10:54 11,7 C 12,8 C 11,1 C 92 % 0 lf 999,4 hPa 0,0 l/m 0 min 0 min 168 W/m 15,8 km/h (3 Bft) 95,74 %
10.03.2018 10:56 11,7 C 12,8 C 11,1 C 92 % 0 lf 999,5 hPa 0,0 l/m 0 min 0 min 172 W/m 13,5 km/h (3 Bft) 96,36 %
10.03.2018 10:58 11,8 C 13,3 C 11,1 C 92 % 0 lf 999,4 hPa 0,0 l/m 0 min 0 min 171 W/m 11,3 km/h (2 Bft) 94,74 %
10.03.2018 11:00 11,8 C 13,3 C 11,1 C 92 % 0 lf 999,4 hPa 0,0 l/m 0 min 0 min 165 W/m 15,8 km/h (3 Bft) 95,74 %
10.03.2018 11:02 11,9 C 13,3 C 11,1 C 91 % 0 lf 999,4 hPa 0,0 l/m 0 min 0 min 154 W/m 13,5 km/h (3 Bft) 95,74 %
10.03.2018 11:04 11,9 C 13,3 C 11,1 C 91 % 0 lf 999,4 hPa 0,0 l/m 0 min 0 min 149 W/m 15,8 km/h (3 Bft) 93,62 %
10.03.2018 11:06 12,0 C 13,3 C 11,1 C 91 % 0 lf 999,4 hPa 0,0 l/m 0 min 0 min 149 W/m 13,5 km/h (3 Bft) 96,23 %
10.03.2018 11:08 12,0 C 13,3 C 11,7 C 91 % 0 lf 999,4 hPa 0,0 l/m 0 min 0 min 151 W/m 11,3 km/h (2 Bft) 93,48 %
10.03.2018 11:10 12,1 C 13,3 C 11,7 C 91 % 0 lf 999,4 hPa 0,0 l/m 0 min 0 min 153 W/m 13,5 km/h (3 Bft) 89,36 %
10.03.2018 11:12 12,1 C 13,3 C 11,7 C 91 % 0 lf 999,4 hPa 0,0 l/m 0 min 0 min 156 W/m 15,8 km/h (3 Bft) 89,36 %
10.03.2018 11:14 12,2 C 13,3 C 11,7 C 90 % 0 lf 999,4 hPa 0,0 l/m 0 min 0 min 162 W/m 18,0 km/h (3 Bft) 87,23 %
10.03.2018 11:16 12,2 C 13,3 C 11,7 C 90 % 0 lf 999,5 hPa 0,0 l/m 0 min 0 min 163 W/m 13,5 km/h (3 Bft) 92,86 %
10.03.2018 11:18 12,3 C 13,9 C 11,7 C 90 % 0 lf 999,4 hPa 0,0 l/m 0 min 0 min 165 W/m 13,5 km/h (3 Bft) 93,62 %
10.03.2018 11:20 12,3 C 13,9 C 11,7 C 90 % 0 lf 999,4 hPa 0,0 l/m 0 min 0 min 174 W/m 13,5 km/h (3 Bft) 93,48 %
10.03.2018 11:22 12,4 C 13,9 C 12,2 C 90 % 0 lf 999,4 hPa 0,0 l/m 0 min 0 min 195 W/m 6,8 km/h (2 Bft) 95,74 %
10.03.2018 11:24 12,4 C 14,4 C 12,2 C 90 % 0 lf 999,4 hPa 0,0 l/m 0 min 0 min 216 W/m 15,8 km/h (3 Bft) 96,36 %
10.03.2018 11:26 12,5 C 14,4 C 12,2 C 90 % 0 lf 999,4 hPa 0,0 l/m 0 min 0 min 223 W/m 11,3 km/h (2 Bft) 98,00 %
10.03.2018 11:28 12,6 C 14,4 C 12,2 C 90 % 0 lf 999,4 hPa 0,0 l/m 0 min 0 min 221 W/m 13,5 km/h (3 Bft) 97,22 %
10.03.2018 11:30 12,6 C 14,4 C 12,2 C 89 % 0 lf 999,4 hPa 0,0 l/m 0 min 0 min 221 W/m 15,8 km/h (3 Bft) 89,36 %
10.03.2018 11:32 12,7 C 14,4 C 12,2 C 89 % 0 lf 999,4 hPa 0,0 l/m 0 min 0 min 217 W/m 15,8 km/h (3 Bft) 95,65 %
10.03.2018 11:34 12,7 C 15,0 C 12,8 C 89 % 0 lf 999,3 hPa 0,0 l/m 0 min 0 min 208 W/m 13,5 km/h (3 Bft) 98,18 %
10.03.2018 11:38 12,8 C 14,4 C 12,2 C 88 % 0 lf 999,4 hPa 0,0 l/m 0 min 0 min 190 W/m 20,3 km/h (4 Bft) 97,89 %
10.03.2018 11:40 12,9 C 14,4 C 12,8 C 88 % 0 lf 999,4 hPa 0,0 l/m 0 min 0 min 179 W/m 13,5 km/h (3 Bft) 97,87 %
10.03.2018 11:42 12,9 C 14,4 C 12,8 C 88 % 0 lf 999,4 hPa 0,0 l/m 0 min 0 min 178 W/m 13,5 km/h (3 Bft) 93,48 %
10.03.2018 11:44 13,0 C 15,0 C 12,2 C 88 % 0 lf 999,3 hPa 0,0 l/m 0 min 0 min 182 W/m 11,3 km/h (2 Bft) 91,49 %
10.03.2018 11:46 13,1 C 15,0 C 12,8 C 88 % 0 lf 999,4 hPa 0,0 l/m 0 min 0 min 191 W/m 15,8 km/h (3 Bft) 97,87 %
10.03.2018 11:48 13,2 C 14,4 C 12,8 C 87 % 0 lf 999,3 hPa 0,0 l/m 0 min 0 min 200 W/m 13,5 km/h (3 Bft) 97,37 %
10.03.2018 11:50 13,2 C 15,0 C 12,8 C 86 % 0 lf 999,3 hPa 0,0 l/m 0 min 0 min 206 W/m 13,5 km/h (3 Bft) 97,87 %
10.03.2018 11:52 13,3 C 15,0 C 12,8 C 86 % 0 lf 999,3 hPa 0,0 l/m 0 min 0 min 204 W/m 11,3 km/h (2 Bft) 93,62 %
10.03.2018 11:54 13,3 C 15,0 C 12,8 C 86 % 0 lf 999,3 hPa 0,0 l/m 0 min 0 min 196 W/m 11,3 km/h (2 Bft) 97,87 %
10.03.2018 11:56 13,4 C 15,0 C 12,8 C 85 % 0 lf 999,3 hPa 0,0 l/m 0 min 0 min 195 W/m 11,3 km/h (2 Bft) 96,36 %
10.03.2018 11:58 13,4 C 15,0 C 13,3 C 85 % 0 lf 999,3 hPa 0,0 l/m 0 min 0 min 197 W/m 9,0 km/h (2 Bft) 95,74 %
10.03.2018 12:00 13,5 C 15,0 C 13,3 C 85 % 0 lf 999,3 hPa 0,0 l/m 0 min 0 min 193 W/m 13,5 km/h (3 Bft) 95,74 %
10.03.2018 12:02 13,6 C 15,0 C 13,3 C 85 % 0 lf 999,3 hPa 0,0 l/m 0 min 0 min 190 W/m 9,0 km/h (2 Bft) 97,37 %
10.03.2018 12:04 13,7 C 15,0 C 13,9 C 85 % 0 lf 999,3 hPa 0,0 l/m 0 min 0 min 189 W/m 15,8 km/h (3 Bft) 97,87 %
10.03.2018 12:08 13,7 C 15,0 C 14,4 C 84 % 0 lf 999,3 hPa 0,0 l/m 0 min 0 min 176 W/m 18,0 km/h (3 Bft) 97,06 %
10.03.2018 12:10 13,8 C 15,0 C 14,4 C 84 % 0 lf 999,3 hPa 0,0 l/m 0 min 0 min 167 W/m 15,8 km/h (3 Bft) 94,74 %
10.03.2018 12:12 13,8 C 15,0 C 13,9 C 83 % 0 lf 999,3 hPa 0,0 l/m 0 min 0 min 169 W/m 20,3 km/h (4 Bft) 97,87 %
10.03.2018 12:14 13,8 C 15,0 C 13,9 C 82 % 0 lf 999,2 hPa 0,0 l/m 0 min 0 min 175 W/m 15,8 km/h (3 Bft) 97,87 %
10.03.2018 12:16 13,9 C 15,0 C 13,9 C 82 % 0 lf 999,2 hPa 0,0 l/m 0 min 0 min 184 W/m 15,8 km/h (3 Bft) 97,92 %
10.03.2018 12:18 13,9 C 15,0 C 13,9 C 81 % 0 lf 999,3 hPa 0,0 l/m 0 min 0 min 194 W/m 20,3 km/h (4 Bft) 89,36 %
10.03.2018 12:20 13,9 C 15,0 C 13,9 C 81 % 0 lf 999,2 hPa 0,0 l/m 0 min 0 min 213 W/m 15,8 km/h (3 Bft) 96,30 %
10.03.2018 12:22 14,0 C 15,6 C 14,4 C 81 % 0 lf 999,3 hPa 0,0 l/m 0 min 0 min 236 W/m 15,8 km/h (3 Bft) 95,74 %
10.03.2018 12:24 14,1 C 15,6 C 14,4 C 81 % 0 lf 999,2 hPa 0,0 l/m 0 min 0 min 253 W/m 20,3 km/h (4 Bft) 97,87 %
10.03.2018 12:26 14,2 C 16,1 C 15,0 C 81 % 0 lf 999,2 hPa 0,0 l/m 0 min 0 min 270 W/m 13,5 km/h (3 Bft) 100,00 %
10.03.2018 12:28 14,2 C 15,6 C 15,0 C 81 % 0 lf 999,2 hPa 0,0 l/m 2 min 0 min 287 W/m 15,8 km/h (3 Bft) 100,00 %
10.03.2018 12:30 14,2 C 16,1 C 15,0 C 81 % 0 lf 999,2 hPa 0,0 l/m 2 min 0 min 302 W/m 18,0 km/h (3 Bft) 100,00 %
10.03.2018 12:32 14,2 C 16,1 C 15,6 C 81 % 0 lf 999,3 hPa 0,0 l/m 2 min 0 min 313 W/m 15,8 km/h (3 Bft) 100,00 %
10.03.2018 12:34 14,2 C 16,1 C 15,6 C 81 % 0 lf 999,2 hPa 0,0 l/m 2 min 0 min 320 W/m 20,3 km/h (4 Bft) 93,62 %
10.03.2018 12:36 14,2 C 16,7 C 15,6 C 80 % 0 lf 999,2 hPa 0,0 l/m 2 min 0 min 331 W/m 18,0 km/h (3 Bft) 97,87 %
10.03.2018 12:38 14,3 C 16,7 C 15,6 C 80 % 0 lf 999,3 hPa 0,0 l/m 2 min 0 min 337 W/m 20,3 km/h (4 Bft) 100,00 %
10.03.2018 12:40 14,3 C 16,7 C 15,6 C 80 % 0 lf 999,2 hPa 0,0 l/m 2 min 0 min 313 W/m 13,5 km/h (3 Bft) 97,87 %
10.03.2018 12:42 14,4 C 16,7 C 15,6 C 80 % 0 lf 999,2 hPa 0,0 l/m 2 min 0 min 306 W/m 15,8 km/h (3 Bft) 100,00 %
10.03.2018 12:44 14,4 C 16,7 C 15,6 C 80 % 0 lf 999,2 hPa 0,0 l/m 2 min 0 min 294 W/m 20,3 km/h (4 Bft) 97,87 %
10.03.2018 12:46 14,5 C 16,1 C 15,6 C 80 % 0 lf 999,1 hPa 0,0 l/m 0 min 0 min 281 W/m 20,3 km/h (4 Bft) 100,00 %
10.03.2018 12:48 14,6 C 16,1 C 15,0 C 80 % 0 lf 999,1 hPa 0,0 l/m 0 min 0 min 275 W/m 18,0 km/h (3 Bft) 100,00 %
10.03.2018 12:50 14,6 C 15,6 C 15,0 C 79 % 0 lf 999,1 hPa 0,0 l/m 0 min 0 min 273 W/m 24,8 km/h (4 Bft) 100,00 %
10.03.2018 12:52 14,6 C 16,1 C 15,0 C 79 % 0 lf 999,0 hPa 0,0 l/m 0 min 0 min 281 W/m 15,8 km/h (3 Bft) 95,74 %
10.03.2018 12:54 14,6 C 16,1 C 15,6 C 79 % 0 lf 999,1 hPa 0,0 l/m 2 min 0 min 287 W/m 13,5 km/h (3 Bft) 97,83 %
10.03.2018 12:56 14,7 C 16,1 C 15,6 C 79 % 0 lf 999,1 hPa 0,0 l/m 2 min 0 min 286 W/m 15,8 km/h (3 Bft) 97,87 %
10.03.2018 12:58 14,7 C 16,1 C 15,6 C 79 % 0 lf 999,1 hPa 0,0 l/m 0 min 0 min 282 W/m 24,8 km/h (4 Bft) 100,00 %
10.03.2018 13:00 14,7 C 16,1 C 15,6 C 79 % 0 lf 999,0 hPa 0,0 l/m 0 min 0 min 275 W/m 18,0 km/h (3 Bft) 100,00 %
10.03.2018 13:02 14,8 C 16,1 C 15,6 C 79 % 0 lf 999,1 hPa 0,0 l/m 0 min 0 min 270 W/m 15,8 km/h (3 Bft) 100,00 %
10.03.2018 13:04 14,8 C 16,1 C 15,6 C 79 % 0 lf 999,1 hPa 0,0 l/m 0 min 0 min 260 W/m 15,8 km/h (3 Bft) 100,00 %
10.03.2018 13:06 14,8 C 16,7 C 15,6 C 79 % 0 lf 999,1 hPa 0,0 l/m 0 min 0 min 253 W/m 22,5 km/h (4 Bft) 97,87 %
10.03.2018 13:08 14,8 C 16,1 C 15,6 C 79 % 0 lf 999,1 hPa 0,0 l/m 0 min 0 min 249 W/m 13,5 km/h (3 Bft) 95,74 %
10.03.2018 13:10 14,9 C 16,7 C 15,6 C 79 % 0 lf 999,1 hPa 0,0 l/m 0 min 0 min 246 W/m 18,0 km/h (3 Bft) 97,87 %
10.03.2018 13:12 14,9 C 16,1 C 15,6 C 78 % 0 lf 999,1 hPa 0,0 l/m 0 min 0 min 246 W/m 15,8 km/h (3 Bft) 97,87 %
10.03.2018 13:14 14,9 C 16,1 C 15,6 C 78 % 0 lf 999,1 hPa 0,0 l/m 0 min 0 min 249 W/m 22,5 km/h (4 Bft) 100,00 %
10.03.2018 13:16 14,9 C 16,1 C 15,6 C 78 % 0 lf 999,1 hPa 0,0 l/m 0 min 0 min 252 W/m 18,0 km/h (3 Bft) 100,00 %
10.03.2018 13:18 14,9 C 16,1 C 15,0 C 78 % 0 lf 999,1 hPa 0,0 l/m 0 min 0 min 254 W/m 27,0 km/h (4 Bft) 97,87 %
10.03.2018 13:20 14,9 C 16,1 C 15,0 C 77 % 0 lf 999,0 hPa 0,0 l/m 0 min 0 min 255 W/m 22,5 km/h (4 Bft) 95,74 %
10.03.2018 13:22 15,0 C 16,1 C 15,0 C 77 % 0 lf 999,0 hPa 0,0 l/m 0 min 0 min 256 W/m 18,0 km/h (3 Bft) 95,74 %
10.03.2018 13:24 15,0 C 16,1 C 15,6 C 77 % 0 lf 999,0 hPa 0,0 l/m 0 min 0 min 263 W/m 15,8 km/h (3 Bft) 95,74 %
10.03.2018 13:26 15,1 C 16,7 C 15,6 C 77 % 0 lf 999,0 hPa 0,0 l/m 2 min 0 min 280 W/m 18,0 km/h (3 Bft) 91,30 %
10.03.2018 13:28 15,1 C 16,7 C 15,6 C 77 % 0 lf 999,0 hPa 0,0 l/m 2 min 0 min 308 W/m 22,5 km/h (4 Bft) 97,87 %
10.03.2018 13:30 15,1 C 17,2 C 15,6 C 77 % 0 lf 999,0 hPa 0,0 l/m 2 min 0 min 331 W/m 24,8 km/h (4 Bft) 95,74 %
10.03.2018 13:32 15,2 C 17,8 C 16,1 C 78 % 0 lf 999,0 hPa 0,0 l/m 2 min 0 min 360 W/m 15,8 km/h (3 Bft) 95,74 %
10.03.2018 13:34 15,2 C 17,8 C 16,1 C 78 % 0 lf 999,0 hPa 0,0 l/m 2 min 0 min 387 W/m 15,8 km/h (3 Bft) 100,00 %
10.03.2018 13:36 15,2 C 18,3 C 16,7 C 78 % 0 lf 999,0 hPa 0,0 l/m 2 min 0 min 381 W/m 13,5 km/h (3 Bft) 95,74 %
10.03.2018 13:38 15,3 C 18,3 C 16,7 C 77 % 0 lf 998,9 hPa 0,0 l/m 2 min 0 min 409 W/m 22,5 km/h (4 Bft) 95,65 %
10.03.2018 13:40 15,4 C 18,3 C 16,7 C 77 % 0 lf 998,9 hPa 0,0 l/m 2 min 0 min 352 W/m 22,5 km/h (4 Bft) 97,87 %
10.03.2018 13:42 15,4 C 17,8 C 16,1 C 77 % 0 lf 998,8 hPa 0,0 l/m 2 min 0 min 313 W/m 22,5 km/h (4 Bft) 93,62 %
10.03.2018 13:44 15,4 C 17,2 C 16,1 C 77 % 0 lf 998,9 hPa 0,0 l/m 2 min 0 min 303 W/m 22,5 km/h (4 Bft) 89,36 %
10.03.2018 13:46 15,5 C 17,2 C 16,1 C 76 % 0 lf 998,8 hPa 0,0 l/m 2 min 0 min 324 W/m 24,8 km/h (4 Bft) 93,62 %
10.03.2018 13:48 15,6 C 18,9 C 16,1 C 76 % 0 lf 998,8 hPa 0,0 l/m 2 min 0 min 426 W/m 18,0 km/h (3 Bft) 92,86 %
10.03.2018 13:50 15,7 C 18,9 C 16,1 C 76 % 0 lf 998,8 hPa 0,0 l/m 2 min 0 min 348 W/m 18,0 km/h (3 Bft) 91,49 %
10.03.2018 13:52 15,7 C 18,3 C 16,1 C 76 % 0 lf 998,8 hPa 0,0 l/m 2 min 0 min 284 W/m 11,3 km/h (2 Bft) 93,48 %
10.03.2018 13:54 15,7 C 17,8 C 16,7 C 76 % 0 lf 998,7 hPa 0,0 l/m 2 min 0 min 281 W/m 13,5 km/h (3 Bft) 91,49 %
10.03.2018 13:56 15,8 C 17,8 C 16,1 C 76 % 0 lf 998,7 hPa 0,0 l/m 2 min 0 min 300 W/m 15,8 km/h (3 Bft) 93,62 %
10.03.2018 13:58 15,8 C 18,3 C 16,7 C 76 % 0 lf 998,6 hPa 0,0 l/m 2 min 0 min 290 W/m 13,5 km/h (3 Bft) 97,87 %
10.03.2018 14:00 15,9 C 17,8 C 16,1 C 76 % 0 lf 998,7 hPa 0,0 l/m 2 min 0 min 296 W/m 24,8 km/h (4 Bft) 95,74 %
10.03.2018 14:02 15,9 C 18,3 C 16,7 C 76 % 0 lf 998,6 hPa 0,0 l/m 2 min 0 min 314 W/m 11,3 km/h (2 Bft) 93,62 %
10.03.2018 14:04 15,9 C 17,8 C 16,7 C 76 % 0 lf 998,7 hPa 0,0 l/m 2 min 0 min 299 W/m 18,0 km/h (3 Bft) 95,65 %
10.03.2018 14:08 16,0 C 17,2 C 16,1 C 75 % 0 lf 998,6 hPa 0,0 l/m 4 min 0 min 268 W/m 24,8 km/h (4 Bft) 94,68 %
10.03.2018 14:10 16,0 C 17,2 C 16,1 C 75 % 0 lf 998,6 hPa 0,0 l/m 2 min 0 min 265 W/m 22,5 km/h (4 Bft) 95,74 %
10.03.2018 14:12 16,0 C 17,2 C 16,1 C 75 % 0 lf 998,6 hPa 0,0 l/m 2 min 0 min 277 W/m 22,5 km/h (4 Bft) 95,74 %
10.03.2018 14:14 16,0 C 17,8 C 16,1 C 76 % 0 lf 998,6 hPa 0,0 l/m 2 min 0 min 318 W/m 20,3 km/h (4 Bft) 93,62 %
10.03.2018 14:16 16,0 C 17,8 C 16,1 C 75 % 0 lf 998,6 hPa 0,0 l/m 2 min 0 min 320 W/m 18,0 km/h (3 Bft) 91,30 %
10.03.2018 14:18 16,0 C 18,3 C 16,7 C 75 % 0 lf 998,6 hPa 0,0 l/m 2 min 0 min 318 W/m 11,3 km/h (2 Bft) 93,62 %
10.03.2018 14:20 16,1 C 17,8 C 16,1 C 75 % 0 lf 998,6 hPa 0,0 l/m 2 min 0 min 329 W/m 20,3 km/h (4 Bft) 93,62 %
10.03.2018 14:22 16,1 C 17,8 C 16,7 C 75 % 0 lf 998,6 hPa 0,0 l/m 2 min 0 min 301 W/m 15,8 km/h (3 Bft) 91,49 %
10.03.2018 14:24 16,1 C 17,2 C 16,7 C 75 % 0 lf 998,6 hPa 0,0 l/m 2 min 0 min 260 W/m 13,5 km/h (3 Bft) 91,49 %
10.03.2018 14:26 16,1 C 17,2 C 16,7 C 76 % 0 lf 998,6 hPa 0,0 l/m 0 min 0 min 242 W/m 11,3 km/h (2 Bft) 91,30 %
10.03.2018 14:28 16,1 C 17,2 C 16,7 C 76 % 0 lf 998,6 hPa 0,0 l/m 0 min 0 min 225 W/m 18,0 km/h (3 Bft) 93,62 %
10.03.2018 14:30 16,1 C 16,7 C 16,1 C 76 % 0 lf 998,6 hPa 0,0 l/m 0 min 0 min 212 W/m 20,3 km/h (4 Bft) 89,36 %
10.03.2018 14:32 16,1 C 16,7 C 16,1 C 75 % 0 lf 998,6 hPa 0,0 l/m 0 min 0 min 198 W/m 18,0 km/h (3 Bft) 93,62 %
10.03.2018 14:34 16,1 C 16,7 C 16,1 C 76 % 0 lf 998,6 hPa 0,0 l/m 0 min 0 min 186 W/m 18,0 km/h (3 Bft) 93,62 %
10.03.2018 14:36 16,1 C 16,7 C 16,1 C 76 % 0 lf 998,6 hPa 0,0 l/m 0 min 0 min 176 W/m 18,0 km/h (3 Bft) 95,74 %
10.03.2018 14:38 16,1 C 16,1 C 15,6 C 75 % 0 lf 998,6 hPa 0,0 l/m 0 min 0 min 171 W/m 22,5 km/h (4 Bft) 93,48 %
10.03.2018 14:40 16,1 C 16,1 C 15,6 C 75 % 0 lf 998,6 hPa 0,0 l/m 0 min 0 min 166 W/m 18,0 km/h (3 Bft) 93,62 %
10.03.2018 14:42 16,0 C 16,1 C 15,0 C 75 % 0 lf 998,6 hPa 0,0 l/m 0 min 0 min 162 W/m 22,5 km/h (4 Bft) 93,62 %
10.03.2018 14:44 15,9 C 15,6 C 15,0 C 75 % 0 lf 998,6 hPa 0,0 l/m 0 min 0 min 160 W/m 24,8 km/h (4 Bft) 91,49 %
10.03.2018 14:46 15,9 C 15,6 C 15,0 C 75 % 0 lf 998,7 hPa 0,0 l/m 0 min 0 min 159 W/m 18,0 km/h (3 Bft) 97,87 %
10.03.2018 14:48 15,9 C 15,6 C 15,0 C 75 % 0 lf 998,7 hPa 0,0 l/m 0 min 0 min 154 W/m 20,3 km/h (4 Bft) 97,87 %
10.03.2018 14:50 15,8 C 15,6 C 15,0 C 75 % 0 lf 998,7 hPa 0,0 l/m 0 min 0 min 149 W/m 24,8 km/h (4 Bft) 93,48 %
10.03.2018 14:52 15,8 C 15,6 C 15,0 C 75 % 0 lf 998,7 hPa 0,0 l/m 0 min 0 min 145 W/m 27,0 km/h (4 Bft) 95,74 %
10.03.2018 14:54 15,8 C 15,6 C 15,0 C 75 % 0 lf 998,7 hPa 0,0 l/m 0 min 0 min 141 W/m 22,5 km/h (4 Bft) 95,74 %
10.03.2018 14:56 15,8 C 15,6 C 15,0 C 75 % 0 lf 998,7 hPa 0,0 l/m 0 min 0 min 141 W/m 24,8 km/h (4 Bft) 95,74 %
10.03.2018 14:58 15,7 C 15,6 C 15,0 C 75 % 0 lf 998,7 hPa 0,0 l/m 0 min 0 min 141 W/m 29,3 km/h (5 Bft) 97,87 %
10.03.2018 15:00 15,7 C 15,6 C 15,0 C 75 % 0 lf 998,8 hPa 0,0 l/m 0 min 0 min 141 W/m 24,8 km/h (4 Bft) 100,00 %
10.03.2018 15:02 15,7 C 16,1 C 15,0 C 76 % 0 lf 998,8 hPa 0,0 l/m 0 min 0 min 142 W/m 20,3 km/h (4 Bft) 100,00 %
10.03.2018 15:04 15,7 C 16,1 C 15,0 C 76 % 0 lf 998,8 hPa 0,0 l/m 0 min 0 min 142 W/m 20,3 km/h (4 Bft) 100,00 %
10.03.2018 15:06 15,7 C 16,1 C 15,0 C 76 % 0 lf 998,8 hPa 0,0 l/m 0 min 0 min 146 W/m 18,0 km/h (3 Bft) 95,74 %
10.03.2018 15:08 15,7 C 16,1 C 15,0 C 76 % 0 lf 998,8 hPa 0,0 l/m 0 min 0 min 150 W/m 20,3 km/h (4 Bft) 100,00 %
10.03.2018 15:10 15,7 C 16,1 C 15,0 C 76 % 0 lf 998,8 hPa 0,0 l/m 0 min 0 min 154 W/m 24,8 km/h (4 Bft) 100,00 %
10.03.2018 15:12 15,7 C 16,1 C 15,0 C 76 % 0 lf 998,8 hPa 0,0 l/m 0 min 0 min 162 W/m 33,8 km/h (5 Bft) 97,87 %
10.03.2018 15:14 15,6 C 15,6 C 15,0 C 76 % 0 lf 998,8 hPa 0,0 l/m 0 min 0 min 169 W/m 24,8 km/h (4 Bft) 97,83 %
10.03.2018 15:16 15,6 C 16,1 C 15,0 C 76 % 0 lf 998,8 hPa 0,0 l/m 0 min 0 min 173 W/m 20,3 km/h (4 Bft) 95,83 %
10.03.2018 15:18 15,6 C 16,1 C 15,0 C 76 % 0 lf 998,8 hPa 0,0 l/m 0 min 0 min 175 W/m 13,5 km/h (3 Bft) 100,00 %
10.03.2018 15:20 15,6 C 16,1 C 15,0 C 77 % 0 lf 998,8 hPa 0,0 l/m 0 min 0 min 178 W/m 22,5 km/h (4 Bft) 100,00 %
10.03.2018 15:22 15,6 C 16,1 C 15,0 C 77 % 0 lf 998,8 hPa 0,0 l/m 0 min 0 min 181 W/m 24,8 km/h (4 Bft) 100,00 %
10.03.2018 15:24 15,6 C 16,7 C 15,0 C 77 % 0 lf 998,8 hPa 0,0 l/m 0 min 0 min 182 W/m 18,0 km/h (3 Bft) 97,87 %
10.03.2018 15:26 15,7 C 16,7 C 15,6 C 77 % 0 lf 998,8 hPa 0,0 l/m 0 min 0 min 184 W/m 20,3 km/h (4 Bft) 97,83 %
10.03.2018 15:28 15,7 C 16,1 C 15,0 C 76 % 0 lf 998,8 hPa 0,0 l/m 0 min 0 min 183 W/m 22,5 km/h (4 Bft) 100,00 %
10.03.2018 15:30 15,7 C 16,1 C 15,0 C 76 % 0 lf 998,8 hPa 0,0 l/m 0 min 0 min 180 W/m 18,0 km/h (3 Bft) 97,87 %
10.03.2018 15:32 15,7 C 16,1 C 15,6 C 76 % 0 lf 998,8 hPa 0,0 l/m 0 min 0 min 176 W/m 15,8 km/h (3 Bft) 97,87 %
10.03.2018 15:34 15,7 C 16,1 C 15,6 C 77 % 0 lf 998,7 hPa 0,0 l/m 0 min 0 min 170 W/m 20,3 km/h (4 Bft) 97,87 %
10.03.2018 15:36 15,7 C 16,1 C 15,0 C 76 % 0 lf 998,8 hPa 0,0 l/m 0 min 0 min 163 W/m 31,5 km/h (5 Bft) 95,65 %
10.03.2018 15:38 15,6 C 16,1 C 15,0 C 76 % 0 lf 998,8 hPa 0,0 l/m 0 min 0 min 156 W/m 18,0 km/h (3 Bft) 97,87 %
10.03.2018 15:40 15,6 C 16,1 C 15,0 C 76 % 0 lf 998,8 hPa 0,0 l/m 0 min 0 min 152 W/m 18,0 km/h (3 Bft) 97,87 %
10.03.2018 15:42 15,6 C 16,1 C 15,0 C 77 % 0 lf 998,8 hPa 0,0 l/m 0 min 0 min 151 W/m 15,8 km/h (3 Bft) 97,87 %
10.03.2018 15:44 15,6 C 15,6 C 15,0 C 77 % 0 lf 998,8 hPa 0,0 l/m 0 min 0 min 151 W/m 20,3 km/h (4 Bft) 97,87 %
10.03.2018 15:46 15,6 C 15,6 C 15,0 C 76 % 0 lf 998,8 hPa 0,0 l/m 0 min 0 min 150 W/m 22,5 km/h (4 Bft) 97,92 %
10.03.2018 15:48 15,6 C 15,6 C 15,0 C 76 % 0 lf 998,8 hPa 0,0 l/m 0 min 0 min 146 W/m 24,8 km/h (4 Bft) 95,65 %
10.03.2018 15:50 15,5 C 16,1 C 15,0 C 77 % 0 lf 998,8 hPa 0,0 l/m 0 min 0 min 143 W/m 15,8 km/h (3 Bft) 95,74 %
10.03.2018 15:52 15,5 C 15,6 C 15,0 C 77 % 0 lf 998,8 hPa 0,0 l/m 0 min 0 min 138 W/m 15,8 km/h (3 Bft) 95,74 %
10.03.2018 15:54 15,5 C 15,6 C 15,0 C 77 % 0 lf 998,9 hPa 0,0 l/m 0 min 0 min 133 W/m 20,3 km/h (4 Bft) 97,87 %
10.03.2018 15:56 15,5 C 15,6 C 14,4 C 76 % 0 lf 998,8 hPa 0,0 l/m 0 min 0 min 128 W/m 24,8 km/h (4 Bft) 97,87 %
10.03.2018 15:58 15,4 C 15,6 C 14,4 C 77 % 0 lf 998,8 hPa 0,0 l/m 0 min 0 min 123 W/m 15,8 km/h (3 Bft) 93,62 %
10.03.2018 16:00 15,4 C 15,6 C 14,4 C 77 % 0 lf 998,8 hPa 0,0 l/m 0 min 0 min 120 W/m 20,3 km/h (4 Bft) 97,83 %
10.03.2018 16:02 15,4 C 15,6 C 14,4 C 77 % 0 lf 998,9 hPa 0,0 l/m 0 min 0 min 116 W/m 24,8 km/h (4 Bft) 97,87 %
10.03.2018 16:04 15,4 C 15,6 C 14,4 C 77 % 0 lf 998,9 hPa 0,0 l/m 0 min 0 min 111 W/m 24,8 km/h (4 Bft) 97,87 %
10.03.2018 16:06 15,3 C 15,0 C 13,9 C 77 % 0 lf 998,8 hPa 0,0 l/m 0 min 0 min 107 W/m 22,5 km/h (4 Bft) 97,87 %
10.03.2018 16:08 15,3 C 15,0 C 13,9 C 77 % 0 lf 998,8 hPa 0,0 l/m 0 min 0 min 104 W/m 18,0 km/h (3 Bft) 100,00 %
10.03.2018 16:10 15,3 C 15,0 C 13,9 C 77 % 0 lf 998,8 hPa 0,0 l/m 0 min 0 min 98 W/m 18,0 km/h (3 Bft) 100,00 %
10.03.2018 16:12 15,2 C 15,0 C 13,9 C 78 % 0 lf 998,8 hPa 0,0 l/m 0 min 0 min 93 W/m 22,5 km/h (4 Bft) 93,48 %
10.03.2018 16:14 15,2 C 15,0 C 13,9 C 78 % 0 lf 998,8 hPa 0,0 l/m 0 min 0 min 88 W/m 18,0 km/h (3 Bft) 100,00 %
10.03.2018 16:16 15,2 C 15,0 C 13,9 C 78 % 0 lf 998,8 hPa 0,0 l/m 0 min 0 min 83 W/m 11,3 km/h (2 Bft) 97,92 %
10.03.2018 16:18 15,2 C 15,0 C 13,9 C 78 % 0 lf 998,8 hPa 0,0 l/m 0 min 0 min 79 W/m 29,3 km/h (5 Bft) 100,00 %
10.03.2018 16:20 15,2 C 15,0 C 13,9 C 78 % 0 lf 998,9 hPa 0,0 l/m 0 min 0 min 76 W/m 22,5 km/h (4 Bft) 100,00 %
10.03.2018 16:22 15,1 C 15,0 C 13,9 C 78 % 0 lf 998,8 hPa 0,0 l/m 0 min 0 min 73 W/m 22,5 km/h (4 Bft) 95,65 %
10.03.2018 16:24 15,1 C 15,0 C 13,9 C 78 % 0 lf 998,9 hPa 0,0 l/m 0 min 0 min 70 W/m 15,8 km/h (3 Bft) 100,00 %
10.03.2018 16:26 15,1 C 15,0 C 13,3 C 78 % 0 lf 998,8 hPa 0,0 l/m 0 min 0 min 68 W/m 24,8 km/h (4 Bft) 100,00 %
10.03.2018 16:28 15,1 C 15,0 C 13,3 C 78 % 0 lf 998,9 hPa 0,0 l/m 0 min 0 min 63 W/m 18,0 km/h (3 Bft) 100,00 %
10.03.2018 16:30 15,0 C 15,0 C 13,3 C 78 % 0 lf 998,9 hPa 0,0 l/m 0 min 0 min 62 W/m 18,0 km/h (3 Bft) 100,00 %
10.03.2018 16:32 15,0 C 15,0 C 13,3 C 79 % 0 lf 998,9 hPa 0,0 l/m 0 min 0 min 62 W/m 13,5 km/h (3 Bft) 97,87 %
10.03.2018 16:34 15,0 C 14,4 C 13,3 C 79 % 0 lf 998,9 hPa 0,0 l/m 0 min 0 min 62 W/m 13,5 km/h (3 Bft) 97,83 %
10.03.2018 16:36 14,9 C 14,4 C 13,3 C 79 % 0 lf 998,9 hPa 0,0 l/m 0 min 0 min 61 W/m 20,3 km/h (4 Bft) 100,00 %
10.03.2018 16:38 14,9 C 14,4 C 13,3 C 79 % 0 lf 998,9 hPa 0,0 l/m 0 min 0 min 59 W/m 20,3 km/h (4 Bft) 97,87 %
10.03.2018 16:40 14,9 C 14,4 C 13,3 C 79 % 0 lf 998,9 hPa 0,0 l/m 0 min 0 min 57 W/m 15,8 km/h (3 Bft) 100,00 %
10.03.2018 16:42 14,9 C 14,4 C 13,3 C 79 % 0 lf 998,9 hPa 0,0 l/m 0 min 0 min 54 W/m 20,3 km/h (4 Bft) 100,00 %
10.03.2018 16:44 14,8 C 14,4 C 13,3 C 79 % 0 lf 998,9 hPa 0,0 l/m 0 min 0 min 53 W/m 15,8 km/h (3 Bft) 100,00 %
10.03.2018 16:46 14,8 C 14,4 C 13,3 C 79 % 0 lf 998,9 hPa 0,0 l/m 0 min 0 min 53 W/m 15,8 km/h (3 Bft) 97,87 %
10.03.2018 16:48 14,8 C 13,9 C 12,8 C 80 % 6 lf 998,9 hPa 0,0 l/m 0 min 2 min 53 W/m 15,8 km/h (3 Bft) 100,00 %
10.03.2018 16:50 14,8 C 13,9 C 12,8 C 80 % 2 lf 999,0 hPa 0,0 l/m 0 min 2 min 57 W/m 18,0 km/h (3 Bft) 97,87 %
10.03.2018 16:52 14,8 C 13,9 C 12,2 C 80 % 0 lf 999,0 hPa 0,0 l/m 0 min 0 min 63 W/m 15,8 km/h (3 Bft) 100,00 %
10.03.2018 16:54 14,7 C 13,9 C 12,2 C 81 % 0 lf 998,9 hPa 0,0 l/m 0 min 0 min 68 W/m 20,3 km/h (4 Bft) 93,62 %
10.03.2018 16:56 14,7 C 13,9 C 12,2 C 81 % 0 lf 998,9 hPa 0,0 l/m 0 min 0 min 74 W/m 18,0 km/h (3 Bft) 95,74 %
10.03.2018 16:58 14,7 C 14,4 C 12,8 C 81 % 0 lf 998,8 hPa 0,0 l/m 0 min 0 min 76 W/m 15,8 km/h (3 Bft) 95,65 %
10.03.2018 17:00 14,7 C 14,4 C 12,8 C 81 % 0 lf 998,8 hPa 0,0 l/m 0 min 0 min 77 W/m 18,0 km/h (3 Bft) 91,49 %
10.03.2018 17:02 14,6 C 14,4 C 12,8 C 81 % 0 lf 998,8 hPa 0,0 l/m 0 min 0 min 79 W/m 27,0 km/h (4 Bft) 91,49 %
10.03.2018 17:04 14,6 C 14,4 C 12,8 C 81 % 0 lf 998,9 hPa 0,0 l/m 0 min 0 min 84 W/m 15,8 km/h (3 Bft) 91,49 %
10.03.2018 17:06 14,6 C 14,4 C 12,8 C 82 % 0 lf 998,8 hPa 0,0 l/m 0 min 0 min 90 W/m 15,8 km/h (3 Bft) 89,36 %
10.03.2018 17:08 14,6 C 14,4 C 13,3 C 82 % 0 lf 999,0 hPa 0,0 l/m 0 min 0 min 96 W/m 11,3 km/h (2 Bft) 91,49 %
10.03.2018 17:10 14,6 C 14,4 C 13,3 C 82 % 0 lf 998,9 hPa 0,0 l/m 2 min 0 min 102 W/m 13,5 km/h (3 Bft) 93,48 %
10.03.2018 17:12 14,5 C 14,4 C 13,3 C 82 % 0 lf 999,0 hPa 0,0 l/m 2 min 0 min 105 W/m 9,0 km/h (2 Bft) 91,49 %
10.03.2018 17:14 14,5 C 14,4 C 13,3 C 82 % 0 lf 998,9 hPa 0,0 l/m 2 min 0 min 107 W/m 11,3 km/h (2 Bft) 91,49 %
10.03.2018 17:16 14,5 C 14,4 C 13,3 C 83 % 0 lf 999,0 hPa 0,0 l/m 2 min 0 min 100 W/m 15,8 km/h (3 Bft) 95,65 %
10.03.2018 17:18 14,5 C 14,4 C 13,3 C 83 % 0 lf 998,9 hPa 0,0 l/m 2 min 0 min 92 W/m 20,3 km/h (4 Bft) 93,33 %
10.03.2018 17:20 14,4 C 14,4 C 13,3 C 83 % 0 lf 998,9 hPa 0,0 l/m 2 min 0 min 86 W/m 13,5 km/h (3 Bft) 91,53 %
10.03.2018 17:22 14,4 C 14,4 C 13,3 C 82 % 0 lf 998,9 hPa 0,0 l/m 0 min 0 min 80 W/m 18,0 km/h (3 Bft) 94,29 %
10.03.2018 17:24 14,4 C 14,4 C 13,3 C 83 % 0 lf 998,9 hPa 0,0 l/m 0 min 0 min 74 W/m 11,3 km/h (2 Bft) 91,30 %
10.03.2018 17:26 14,4 C 14,4 C 13,3 C 83 % 0 lf 998,9 hPa 0,0 l/m 0 min 0 min 63 W/m 15,8 km/h (3 Bft) 91,49 %
10.03.2018 17:28 14,4 C 14,4 C 12,8 C 83 % 0 lf 999,0 hPa 0,0 l/m 0 min 0 min 52 W/m 15,8 km/h (3 Bft) 91,49 %
10.03.2018 17:30 14,4 C 13,9 C 12,8 C 83 % 0 lf 998,9 hPa 0,0 l/m 0 min 0 min 46 W/m 20,3 km/h (4 Bft) 93,62 %
10.03.2018 17:32 14,3 C 13,9 C 12,8 C 83 % 0 lf 999,0 hPa 0,0 l/m 0 min 0 min 43 W/m 15,8 km/h (3 Bft) 91,49 %
10.03.2018 17:34 14,3 C 13,9 C 12,8 C 83 % 0 lf 999,0 hPa 0,0 l/m 0 min 0 min 42 W/m 13,5 km/h (3 Bft) 91,49 %
10.03.2018 17:36 14,3 C 13,9 C 12,8 C 83 % 0 lf 999,0 hPa 0,0 l/m 0 min 0 min 42 W/m 18,0 km/h (3 Bft) 91,30 %
10.03.2018 17:38 14,2 C 13,9 C 12,8 C 84 % 0 lf 999,0 hPa 0,0 l/m 0 min 0 min 42 W/m 20,3 km/h (4 Bft) 93,62 %
10.03.2018 17:40 14,2 C 13,9 C 12,8 C 84 % 0 lf 999,0 hPa 0,0 l/m 0 min 0 min 42 W/m 20,3 km/h (4 Bft) 91,49 %
10.03.2018 17:42 14,2 C 13,9 C 12,2 C 84 % 0 lf 999,0 hPa 0,0 l/m 0 min 0 min 42 W/m 15,8 km/h (3 Bft) 93,62 %
10.03.2018 17:44 14,2 C 13,9 C 12,2 C 84 % 0 lf 999,1 hPa 0,0 l/m 0 min 2 min 42 W/m 27,0 km/h (4 Bft) 91,49 %
10.03.2018 17:46 14,2 C 13,3 C 12,2 C 84 % 0 lf 999,1 hPa 0,0 l/m 0 min 2 min 38 W/m 20,3 km/h (4 Bft) 89,36 %
10.03.2018 17:48 14,2 C 13,3 C 12,2 C 84 % 0 lf 999,0 hPa 0,0 l/m 0 min 2 min 31 W/m 18,0 km/h (3 Bft) 91,30 %
10.03.2018 17:50 14,1 C 13,3 C 12,2 C 84 % 0 lf 999,1 hPa 0,0 l/m 0 min 0 min 26 W/m 20,3 km/h (4 Bft) 94,92 %
10.03.2018 17:52 14,1 C 12,8 C 11,7 C 84 % 0 lf 999,1 hPa 0,0 l/m 0 min 2 min 23 W/m 15,8 km/h (3 Bft) 94,29 %
10.03.2018 17:54 14,0 C 12,8 C 11,7 C 84 % 0 lf 999,1 hPa 0,0 l/m 0 min 2 min 21 W/m 18,0 km/h (3 Bft) 95,74 %
10.03.2018 17:56 13,9 C 12,8 C 11,7 C 85 % 0 lf 999,1 hPa 0,0 l/m 0 min 2 min 19 W/m 15,8 km/h (3 Bft) 93,62 %
10.03.2018 17:58 13,9 C 12,8 C 11,7 C 85 % 0 lf 999,1 hPa 0,0 l/m 0 min 0 min 18 W/m 18,0 km/h (3 Bft) 95,74 %
10.03.2018 18:00 13,8 C 12,8 C 11,7 C 85 % 0 lf 999,2 hPa 0,0 l/m 0 min 0 min 18 W/m 18,0 km/h (3 Bft) 100,00 %
10.03.2018 18:02 13,8 C 12,8 C 11,7 C 85 % 0 lf 999,2 hPa 0,0 l/m 0 min 2 min 18 W/m 18,0 km/h (3 Bft) 95,74 %
10.03.2018 18:04 13,7 C 12,8 C 11,1 C 85 % 0 lf 999,2 hPa 0,0 l/m 0 min 2 min 19 W/m 22,5 km/h (4 Bft) 97,87 %
10.03.2018 18:06 13,7 C 12,2 C 11,1 C 86 % 0 lf 999,1 hPa 0,0 l/m 0 min 2 min 19 W/m 18,0 km/h (3 Bft) 97,87 %
10.03.2018 18:08 13,6 C 12,2 C 11,1 C 86 % 0 lf 999,1 hPa 0,0 l/m 0 min 2 min 18 W/m 15,8 km/h (3 Bft) 100,00 %
10.03.2018 18:10 13,5 C 12,2 C 11,1 C 86 % 0 lf 999,1 hPa 0,0 l/m 0 min 2 min 14 W/m 18,0 km/h (3 Bft) 100,00 %
10.03.2018 18:12 13,4 C 12,2 C 11,1 C 86 % 0 lf 999,1 hPa 0,0 l/m 0 min 2 min 14 W/m 18,0 km/h (3 Bft) 97,87 %
10.03.2018 18:14 13,4 C 12,2 C 11,1 C 86 % 0 lf 999,2 hPa 0,0 l/m 0 min 2 min 13 W/m 20,3 km/h (4 Bft) 97,87 %
10.03.2018 18:16 13,3 C 11,7 C 10,6 C 87 % 0 lf 999,2 hPa 0,0 l/m 0 min 2 min 12 W/m 20,3 km/h (4 Bft) 97,87 %
10.03.2018 18:18 13,3 C 11,7 C 10,6 C 87 % 2 lf 999,2 hPa 0,0 l/m 0 min 2 min 10 W/m 20,3 km/h (4 Bft) 100,00 %
10.03.2018 18:20 13,2 C 11,7 C 10,0 C 87 % 1 lf 999,2 hPa 0,0 l/m 0 min 2 min 5 W/m 22,5 km/h (4 Bft) 100,00 %
10.03.2018 18:22 13,2 C 11,7 C 10,0 C 87 % 0 lf 999,2 hPa 0,0 l/m 0 min 2 min 0 W/m 22,5 km/h (4 Bft) 100,00 %
10.03.2018 18:24 13,1 C 11,1 C 10,0 C 88 % 0 lf 999,2 hPa 0,0 l/m 0 min 2 min 0 W/m 18,0 km/h (3 Bft) 100,00 %
10.03.2018 18:26 13,1 C 11,1 C 10,0 C 88 % 0 lf 999,1 hPa 0,0 l/m 0 min 2 min 0 W/m 29,3 km/h (5 Bft) 100,00 %
10.03.2018 18:28 13,0 C 11,1 C 10,0 C 88 % 0 lf 999,1 hPa 0,0 l/m 0 min 2 min 0 W/m 15,8 km/h (3 Bft) 97,87 %
10.03.2018 18:30 12,9 C 11,1 C 10,0 C 88 % 1 lf 999,1 hPa 0,0 l/m 0 min 2 min 0 W/m 18,0 km/h (3 Bft) 100,00 %
10.03.2018 18:32 12,9 C 11,1 C 10,0 C 89 % 1 lf 999,1 hPa 0,0 l/m 0 min 2 min 0 W/m 20,3 km/h (4 Bft) 100,00 %
10.03.2018 18:34 12,8 C 11,1 C 10,0 C 89 % 1 lf 999,1 hPa 0,0 l/m 0 min 2 min 0 W/m 22,5 km/h (4 Bft) 97,83 %
10.03.2018 18:36 12,8 C 11,1 C 10,0 C 89 % 1 lf 999,1 hPa 0,0 l/m 0 min 2 min 0 W/m 18,0 km/h (3 Bft) 100,00 %
10.03.2018 18:38 12,7 C 11,1 C 10,0 C 89 % 1 lf 999,1 hPa 0,0 l/m 0 min 2 min 0 W/m 20,3 km/h (4 Bft) 100,00 %
10.03.2018 18:40 12,7 C 11,1 C 10,0 C 89 % 1 lf 999,1 hPa 0,0 l/m 0 min 2 min 0 W/m 22,5 km/h (4 Bft) 97,87 %
10.03.2018 18:42 12,7 C 11,1 C 10,0 C 90 % 1 lf 999,2 hPa 0,0 l/m 0 min 2 min 0 W/m 15,8 km/h (3 Bft) 100,00 %
10.03.2018 18:44 12,6 C 11,1 C 10,0 C 90 % 1 lf 999,2 hPa 0,0 l/m 0 min 0 min 0 W/m 15,8 km/h (3 Bft) 97,87 %
10.03.2018 18:46 12,6 C 11,1 C 10,0 C 90 % 1 lf 999,3 hPa 0,0 l/m 0 min 0 min 0 W/m 18,0 km/h (3 Bft) 95,65 %
10.03.2018 18:48 12,5 C 11,1 C 10,0 C 90 % 1 lf 999,3 hPa 0,0 l/m 0 min 0 min 0 W/m 18,0 km/h (3 Bft) 95,74 %
10.03.2018 18:50 12,4 C 11,1 C 10,0 C 90 % 1 lf 999,2 hPa 0,0 l/m 0 min 0 min 0 W/m 18,0 km/h (3 Bft) 98,31 %
10.03.2018 18:52 12,4 C 11,1 C 10,0 C 91 % 1 lf 999,2 hPa 0,0 l/m 0 min 0 min 0 W/m 18,0 km/h (3 Bft) 97,14 %
10.03.2018 18:54 12,4 C 11,1 C 10,0 C 91 % 1 lf 999,1 hPa 0,0 l/m 0 min 0 min 0 W/m 15,8 km/h (3 Bft) 97,87 %
10.03.2018 18:56 12,4 C 11,1 C 10,0 C 91 % 1 lf 999,2 hPa 0,0 l/m 0 min 0 min 0 W/m 20,3 km/h (4 Bft) 100,00 %
10.03.2018 18:58 12,3 C 11,1 C 10,0 C 91 % 1 lf 999,2 hPa 0,0 l/m 0 min 0 min 0 W/m 20,3 km/h (4 Bft) 95,65 %
10.03.2018 19:00 12,3 C 11,1 C 10,0 C 91 % 1 lf 999,2 hPa 0,0 l/m 0 min 0 min 0 W/m 15,8 km/h (3 Bft) 95,74 %
10.03.2018 19:02 12,2 C 11,1 C 10,0 C 91 % 1 lf 999,3 hPa 0,0 l/m 0 min 0 min 0 W/m 15,8 km/h (3 Bft) 97,87 %
10.03.2018 19:04 12,2 C 11,1 C 10,0 C 91 % 1 lf 999,3 hPa 0,0 l/m 0 min 0 min 0 W/m 18,0 km/h (3 Bft) 100,00 %
10.03.2018 19:06 12,2 C 11,1 C 10,0 C 92 % 1 lf 999,3 hPa 0,0 l/m 0 min 0 min 0 W/m 27,0 km/h (4 Bft) 100,00 %
10.03.2018 19:08 12,2 C 11,1 C 10,0 C 92 % 1 lf 999,3 hPa 0,0 l/m 0 min 0 min 0 W/m 20,3 km/h (4 Bft) 100,00 %
10.03.2018 19:10 12,2 C 11,1 C 10,0 C 92 % 1 lf 999,2 hPa 0,0 l/m 0 min 0 min 0 W/m 18,0 km/h (3 Bft) 97,83 %
10.03.2018 19:12 12,1 C 11,1 C 10,0 C 92 % 1 lf 999,2 hPa 0,0 l/m 0 min 0 min 0 W/m 13,5 km/h (3 Bft) 100,00 %
10.03.2018 19:14 12,1 C 11,1 C 10,0 C 92 % 1 lf 999,3 hPa 0,0 l/m 0 min 0 min 0 W/m 20,3 km/h (4 Bft) 100,00 %
10.03.2018 19:16 12,1 C 11,1 C 10,0 C 92 % 1 lf 999,4 hPa 0,0 l/m 0 min 0 min 0 W/m 18,0 km/h (3 Bft) 100,00 %
10.03.2018 19:18 12,0 C 11,1 C 10,0 C 92 % 1 lf 999,4 hPa 0,0 l/m 0 min 0 min 0 W/m 15,8 km/h (3 Bft) 100,00 %
10.03.2018 19:20 12,0 C 11,1 C 10,0 C 92 % 1 lf 999,4 hPa 0,0 l/m 0 min 0 min 0 W/m 15,8 km/h (3 Bft) 100,00 %
10.03.2018 19:22 12,0 C 11,1 C 10,0 C 92 % 1 lf 999,4 hPa 0,0 l/m 0 min 0 min 0 W/m 24,8 km/h (4 Bft) 97,87 %
10.03.2018 19:24 12,0 C 11,1 C 10,0 C 92 % 1 lf 999,4 hPa 0,0 l/m 0 min 0 min 0 W/m 18,0 km/h (3 Bft) 97,87 %
10.03.2018 19:26 11,9 C 11,1 C 10,0 C 92 % 1 lf 999,4 hPa 0,0 l/m 0 min 0 min 0 W/m 27,0 km/h (4 Bft) 97,87 %
10.03.2018 19:28 11,9 C 11,1 C 10,0 C 92 % 1 lf 999,4 hPa 0,0 l/m 0 min 0 min 0 W/m 24,8 km/h (4 Bft) 97,87 %
10.03.2018 19:30 11,9 C 11,1 C 10,0 C 92 % 1 lf 999,4 hPa 0,0 l/m 0 min 0 min 0 W/m 22,5 km/h (4 Bft) 95,74 %
10.03.2018 19:32 11,9 C 11,1 C 10,0 C 92 % 1 lf 999,4 hPa 0,0 l/m 0 min 0 min 0 W/m 22,5 km/h (4 Bft) 95,74 %
10.03.2018 19:34 11,9 C 11,1 C 10,0 C 92 % 1 lf 999,4 hPa 0,0 l/m 0 min 0 min 0 W/m 15,8 km/h (3 Bft) 97,87 %
10.03.2018 19:36 11,9 C 11,1 C 10,0 C 92 % 1 lf 999,4 hPa 0,0 l/m 0 min 0 min 0 W/m 27,0 km/h (4 Bft) 95,74 %
10.03.2018 19:38 11,9 C 11,1 C 10,0 C 92 % 1 lf 999,4 hPa 0,0 l/m 0 min 0 min 0 W/m 20,3 km/h (4 Bft) 95,74 %
10.03.2018 19:40 11,9 C 11,7 C 10,0 C 92 % 1 lf 999,4 hPa 0,0 l/m 0 min 0 min 0 W/m 18,0 km/h (3 Bft) 97,87 %
10.03.2018 19:42 11,9 C 11,7 C 10,0 C 92 % 1 lf 999,3 hPa 0,0 l/m 0 min 0 min 0 W/m 20,3 km/h (4 Bft) 93,62 %
10.03.2018 19:44 11,9 C 11,7 C 10,0 C 92 % 1 lf 999,4 hPa 0,0 l/m 0 min 0 min 0 W/m 13,5 km/h (3 Bft) 95,65 %
10.03.2018 19:46 11,9 C 11,7 C 10,0 C 92 % 1 lf 999,3 hPa 0,0 l/m 0 min 0 min 0 W/m 18,0 km/h (3 Bft) 95,83 %
10.03.2018 19:48 11,9 C 11,1 C 10,0 C 93 % 1 lf 999,2 hPa 0,0 l/m 0 min 0 min 0 W/m 20,3 km/h (4 Bft) 95,74 %
10.03.2018 19:50 11,9 C 11,1 C 9,4 C 93 % 1 lf 999,3 hPa 0,0 l/m 0 min 0 min 0 W/m 24,8 km/h (4 Bft) 91,53 %
10.03.2018 19:52 11,9 C 11,1 C 9,4 C 93 % 1 lf 999,4 hPa 0,0 l/m 0 min 0 min 0 W/m 20,3 km/h (4 Bft) 94,29 %
10.03.2018 19:54 11,9 C 11,7 C 9,4 C 93 % 1 lf 999,4 hPa 0,2 l/m 0 min 0 min 0 W/m 22,5 km/h (4 Bft) 95,74 %
10.03.2018 19:56 11,8 C 11,7 C 9,4 C 93 % 1 lf 999,4 hPa 0,0 l/m 0 min 0 min 0 W/m 18,0 km/h (3 Bft) 91,30 %
10.03.2018 19:58 11,8 C 11,7 C 9,4 C 93 % 1 lf 999,4 hPa 0,0 l/m 0 min 0 min 0 W/m 18,0 km/h (3 Bft) 91,49 %
10.03.2018 20:00 11,8 C 11,7 C 10,0 C 93 % 1 lf 999,4 hPa 0,0 l/m 0 min 0 min 0 W/m 22,5 km/h (4 Bft) 91,49 %
10.03.2018 20:02 11,8 C 11,7 C 10,0 C 93 % 0 lf 999,4 hPa 0,0 l/m 0 min 0 min 0 W/m 22,5 km/h (4 Bft) 93,62 %
10.03.2018 20:04 11,8 C 11,7 C 10,0 C 92 % 0 lf 999,4 hPa 0,0 l/m 0 min 0 min 0 W/m 20,3 km/h (4 Bft) 95,74 %
10.03.2018 20:06 11,8 C 11,7 C 10,0 C 92 % 0 lf 999,4 hPa 0,0 l/m 0 min 0 min 0 W/m 18,0 km/h (3 Bft) 95,74 %
10.03.2018 20:08 11,8 C 11,7 C 10,0 C 92 % 0 lf 999,4 hPa 0,0 l/m 0 min 0 min 0 W/m 20,3 km/h (4 Bft) 93,48 %
10.03.2018 20:10 11,8 C 11,7 C 10,0 C 92 % 0 lf 999,4 hPa 0,0 l/m 0 min 0 min 0 W/m 18,0 km/h (3 Bft) 95,74 %
10.03.2018 20:12 11,8 C 11,7 C 10,0 C 93 % 0 lf 999,5 hPa 0,0 l/m 0 min 0 min 0 W/m 22,5 km/h (4 Bft) 95,74 %
10.03.2018 20:14 11,8 C 11,7 C 10,0 C 92 % 0 lf 999,5 hPa 0,0 l/m 0 min 0 min 0 W/m 22,5 km/h (4 Bft) 89,36 %
10.03.2018 20:16 11,8 C 11,7 C 10,0 C 92 % 0 lf 999,5 hPa 0,0 l/m 0 min 0 min 0 W/m 20,3 km/h (4 Bft) 93,62 %
10.03.2018 20:18 11,8 C 11,7 C 10,0 C 93 % 0 lf 999,5 hPa 0,0 l/m 0 min 0 min 0 W/m 20,3 km/h (4 Bft) 91,49 %
10.03.2018 20:20 11,8 C 11,7 C 10,0 C 93 % 0 lf 999,6 hPa 0,0 l/m 0 min 0 min 0 W/m 24,8 km/h (4 Bft) 95,65 %
10.03.2018 20:22 11,8 C 11,7 C 10,0 C 93 % 0 lf 999,5 hPa 0,0 l/m 0 min 0 min 0 W/m 20,3 km/h (4 Bft) 95,74 %
10.03.2018 20:24 11,8 C 11,7 C 10,0 C 93 % 0 lf 999,5 hPa 0,0 l/m 0 min 0 min 0 W/m 20,3 km/h (4 Bft) 95,74 %
10.03.2018 20:26 11,8 C 11,7 C 10,0 C 92 % 0 lf 999,5 hPa 0,0 l/m 0 min 0 min 0 W/m 15,8 km/h (3 Bft) 95,74 %
10.03.2018 20:28 11,8 C 11,7 C 10,0 C 92 % 0 lf 999,5 hPa 0,0 l/m 0 min 0 min 0 W/m 18,0 km/h (3 Bft) 93,62 %
10.03.2018 20:30 11,8 C 11,7 C 10,0 C 92 % 0 lf 999,5 hPa 0,0 l/m 0 min 0 min 0 W/m 22,5 km/h (4 Bft) 91,30 %
10.03.2018 20:32 11,8 C 11,7 C 10,0 C 92 % 0 lf 999,5 hPa 0,0 l/m 0 min 0 min 0 W/m 18,0 km/h (3 Bft) 91,49 %
10.03.2018 20:34 11,8 C 11,7 C 10,0 C 92 % 0 lf 999,5 hPa 0,0 l/m 0 min 0 min 0 W/m 20,3 km/h (4 Bft) 95,74 %
10.03.2018 20:36 11,8 C 11,7 C 10,0 C 92 % 0 lf 999,5 hPa 0,0 l/m 0 min 0 min 0 W/m 15,8 km/h (3 Bft) 93,62 %
10.03.2018 20:38 11,8 C 11,7 C 10,0 C 92 % 0 lf 999,5 hPa 0,0 l/m 0 min 0 min 0 W/m 20,3 km/h (4 Bft) 93,62 %
10.03.2018 20:40 11,8 C 11,7 C 10,0 C 92 % 0 lf 999,5 hPa 0,0 l/m 0 min 0 min 0 W/m 15,8 km/h (3 Bft) 93,62 %
10.03.2018 20:42 11,8 C 11,7 C 10,0 C 92 % 0 lf 999,5 hPa 0,0 l/m 0 min 0 min 0 W/m 20,3 km/h (4 Bft) 95,65 %
10.03.2018 20:44 11,8 C 11,7 C 10,0 C 92 % 0 lf 999,4 hPa 0,0 l/m 0 min 0 min 0 W/m 18,0 km/h (3 Bft) 97,87 %
10.03.2018 20:46 11,8 C 11,7 C 10,0 C 92 % 0 lf 999,5 hPa 0,0 l/m 0 min 0 min 0 W/m 18,0 km/h (3 Bft) 95,74 %
10.03.2018 20:48 11,8 C 11,7 C 10,0 C 92 % 0 lf 999,5 hPa 0,0 l/m 0 min 0 min 0 W/m 20,3 km/h (4 Bft) 95,74 %
10.03.2018 20:50 11,8 C 11,7 C 10,0 C 92 % 0 lf 999,4 hPa 0,0 l/m 0 min 0 min 0 W/m 15,8 km/h (3 Bft) 95,74 %
10.03.2018 20:52 11,8 C 11,7 C 10,0 C 92 % 0 lf 999,4 hPa 0,0 l/m 0 min 0 min 0 W/m 18,0 km/h (3 Bft) 97,87 %
10.03.2018 20:54 11,8 C 11,7 C 10,0 C 92 % 0 lf 999,4 hPa 0,0 l/m 0 min 0 min 0 W/m 15,8 km/h (3 Bft) 95,65 %
10.03.2018 20:56 11,8 C 11,7 C 10,0 C 92 % 0 lf 999,4 hPa 0,0 l/m 0 min 0 min 0 W/m 15,8 km/h (3 Bft) 97,87 %
10.03.2018 20:58 11,8 C 11,7 C 10,0 C 92 % 0 lf 999,4 hPa 0,0 l/m 0 min 0 min 0 W/m 15,8 km/h (3 Bft) 97,87 %
10.03.2018 21:00 11,8 C 11,7 C 10,0 C 92 % 0 lf 999,5 hPa 0,0 l/m 0 min 0 min 0 W/m 15,8 km/h (3 Bft) 95,74 %
10.03.2018 21:02 11,8 C 11,7 C 10,0 C 92 % 0 lf 999,5 hPa 0,0 l/m 0 min 0 min 0 W/m 15,8 km/h (3 Bft) 97,87 %
10.03.2018 21:04 11,8 C 11,7 C 10,0 C 92 % 0 lf 999,4 hPa 0,0 l/m 0 min 0 min 0 W/m 18,0 km/h (3 Bft) 97,87 %
10.03.2018 21:06 11,8 C 11,7 C 10,0 C 92 % 0 lf 999,5 hPa 0,0 l/m 0 min 0 min 0 W/m 22,5 km/h (4 Bft) 95,65 %
10.03.2018 21:08 11,8 C 11,7 C 10,0 C 92 % 0 lf 999,4 hPa 0,0 l/m 0 min 0 min 0 W/m 22,5 km/h (4 Bft) 97,87 %
10.03.2018 21:10 11,8 C 11,7 C 10,0 C 92 % 0 lf 999,5 hPa 0,0 l/m 0 min 0 min 0 W/m 13,5 km/h (3 Bft) 97,87 %
10.03.2018 21:12 11,8 C 11,7 C 10,0 C 92 % 0 lf 999,4 hPa 0,0 l/m 0 min 0 min 0 W/m 20,3 km/h (4 Bft) 95,74 %
10.03.2018 21:14 11,8 C 11,7 C 10,0 C 92 % 0 lf 999,5 hPa 0,0 l/m 0 min 0 min 0 W/m 18,0 km/h (3 Bft) 97,87 %
10.03.2018 21:16 11,8 C 11,7 C 10,0 C 92 % 0 lf 999,4 hPa 0,0 l/m 0 min 0 min 0 W/m 18,0 km/h (3 Bft) 97,87 %
10.03.2018 21:18 11,8 C 11,7 C 10,0 C 92 % 0 lf 999,4 hPa 0,0 l/m 0 min 0 min 0 W/m 20,3 km/h (4 Bft) 95,65 %
10.03.2018 21:20 11,8 C 11,7 C 10,0 C 92 % 0 lf 999,4 hPa 0,0 l/m 0 min 0 min 0 W/m 20,3 km/h (4 Bft) 98,31 %
10.03.2018 21:22 11,8 C 11,7 C 10,0 C 92 % 0 lf 999,4 hPa 0,0 l/m 0 min 0 min 0 W/m 22,5 km/h (4 Bft) 94,29 %
10.03.2018 21:24 11,8 C 11,7 C 10,0 C 92 % 0 lf 999,4 hPa 0,0 l/m 0 min 0 min 0 W/m 18,0 km/h (3 Bft) 97,87 %
10.03.2018 21:26 11,8 C 11,7 C 10,0 C 92 % 0 lf 999,4 hPa 0,0 l/m 0 min 0 min 0 W/m 20,3 km/h (4 Bft) 95,74 %
10.03.2018 21:28 11,8 C 11,7 C 10,0 C 92 % 0 lf 999,5 hPa 0,0 l/m 0 min 0 min 0 W/m 22,5 km/h (4 Bft) 93,62 %
10.03.2018 21:30 11,8 C 11,7 C 10,0 C 92 % 0 lf 999,5 hPa 0,0 l/m 0 min 0 min 0 W/m 20,3 km/h (4 Bft) 93,48 %
10.03.2018 21:32 11,8 C 11,7 C 10,0 C 92 % 0 lf 999,4 hPa 0,0 l/m 0 min 0 min 0 W/m 18,0 km/h (3 Bft) 95,74 %
10.03.2018 21:34 11,8 C 11,7 C 10,0 C 92 % 0 lf 999,4 hPa 0,0 l/m 0 min 0 min 0 W/m 18,0 km/h (3 Bft) 95,74 %
10.03.2018 21:36 11,8 C 11,7 C 10,0 C 92 % 0 lf 999,4 hPa 0,0 l/m 0 min 0 min 0 W/m 18,0 km/h (3 Bft) 95,74 %
10.03.2018 21:38 11,8 C 11,7 C 10,0 C 92 % 0 lf 999,5 hPa 0,0 l/m 0 min 0 min 0 W/m 18,0 km/h (3 Bft) 95,74 %
10.03.2018 21:40 11,8 C 11,7 C 10,0 C 92 % 0 lf 999,5 hPa 0,0 l/m 0 min 0 min 0 W/m 22,5 km/h (4 Bft) 91,30 %
10.03.2018 21:42 11,8 C 11,7 C 10,0 C 92 % 0 lf 999,5 hPa 0,0 l/m 0 min 0 min 0 W/m 20,3 km/h (4 Bft) 97,87 %
10.03.2018 21:44 11,8 C 11,7 C 10,0 C 92 % 0 lf 999,5 hPa 0,0 l/m 0 min 0 min 0 W/m 20,3 km/h (4 Bft) 97,87 %
10.03.2018 21:46 11,8 C 11,7 C 10,0 C 92 % 0 lf 999,5 hPa 0,0 l/m 0 min 0 min 0 W/m 13,5 km/h (3 Bft) 97,62 %
10.03.2018 21:48 11,8 C 11,7 C 10,0 C 92 % 0 lf 999,5 hPa 0,0 l/m 0 min 0 min 0 W/m 13,5 km/h (3 Bft) 95,74 %
10.03.2018 21:50 11,8 C 11,7 C 10,0 C 92 % 0 lf 999,4 hPa 0,0 l/m 0 min 0 min 0 W/m 15,8 km/h (3 Bft) 96,55 %
10.03.2018 21:52 11,8 C 11,7 C 10,0 C 92 % 0 lf 999,5 hPa 0,0 l/m 0 min 0 min 0 W/m 13,5 km/h (3 Bft) 94,44 %
10.03.2018 21:54 11,8 C 11,7 C 10,0 C 92 % 0 lf 999,5 hPa 0,0 l/m 0 min 0 min 0 W/m 13,5 km/h (3 Bft) 97,83 %
10.03.2018 21:56 11,8 C 11,7 C 10,0 C 92 % 0 lf 999,5 hPa 0,0 l/m 0 min 0 min 0 W/m 13,5 km/h (3 Bft) 97,87 %
10.03.2018 21:58 11,8 C 11,7 C 10,0 C 92 % 0 lf 999,4 hPa 0,0 l/m 0 min 0 min 0 W/m 15,8 km/h (3 Bft) 100,00 %
10.03.2018 22:00 11,8 C 11,7 C 10,0 C 92 % 0 lf 999,4 hPa 0,0 l/m 0 min 0 min 0 W/m 13,5 km/h (3 Bft) 100,00 %
10.03.2018 22:02 11,8 C 11,7 C 10,0 C 92 % 0 lf 999,4 hPa 0,0 l/m 0 min 0 min 0 W/m 11,3 km/h (2 Bft) 100,00 %
10.03.2018 22:04 11,8 C 11,7 C 10,0 C 92 % 0 lf 999,4 hPa 0,0 l/m 0 min 0 min 0 W/m 13,5 km/h (3 Bft) 100,00 %
10.03.2018 22:06 11,8 C 11,7 C 10,0 C 92 % 0 lf 999,4 hPa 0,0 l/m 0 min 0 min 0 W/m 13,5 km/h (3 Bft) 100,00 %
10.03.2018 22:08 11,8 C 11,7 C 10,0 C 92 % 0 lf 999,4 hPa 0,0 l/m 0 min 0 min 0 W/m 15,8 km/h (3 Bft) 100,00 %
10.03.2018 22:10 11,8 C 11,7 C 10,0 C 92 % 0 lf 999,4 hPa 0,0 l/m 0 min 0 min 0 W/m 11,3 km/h (2 Bft) 100,00 %
10.03.2018 22:12 11,8 C 11,7 C 10,0 C 92 % 0 lf 999,4 hPa 0,0 l/m 0 min 0 min 0 W/m 13,5 km/h (3 Bft) 93,62 %
10.03.2018 22:14 11,8 C 11,7 C 10,0 C 92 % 0 lf 999,3 hPa 0,0 l/m 0 min 0 min 0 W/m 11,3 km/h (2 Bft) 100,00 %
10.03.2018 22:16 11,8 C 11,7 C 10,0 C 92 % 0 lf 999,4 hPa 0,0 l/m 0 min 0 min 0 W/m 11,3 km/h (2 Bft) 100,00 %
10.03.2018 22:18 11,8 C 11,7 C 10,0 C 92 % 0 lf 999,4 hPa 0,0 l/m 0 min 0 min 0 W/m 18,0 km/h (3 Bft) 98,00 %
10.03.2018 22:20 11,8 C 11,7 C 10,0 C 92 % 0 lf 999,4 hPa 0,0 l/m 0 min 0 min 0 W/m 13,5 km/h (3 Bft) 100,00 %
10.03.2018 22:22 11,8 C 11,7 C 10,0 C 92 % 0 lf 999,4 hPa 0,0 l/m 0 min 0 min 0 W/m 13,5 km/h (3 Bft) 100,00 %
10.03.2018 22:24 11,8 C 11,7 C 10,0 C 92 % 0 lf 999,3 hPa 0,0 l/m 0 min 0 min 0 W/m 11,3 km/h (2 Bft) 97,87 %
10.03.2018 22:26 11,7 C 11,7 C 10,0 C 92 % 0 lf 999,3 hPa 0,0 l/m 0 min 0 min 0 W/m 11,3 km/h (2 Bft) 100,00 %
10.03.2018 22:28 11,8 C 11,7 C 10,0 C 92 % 0 lf 999,3 hPa 0,0 l/m 0 min 0 min 0 W/m 15,8 km/h (3 Bft) 95,65 %
10.03.2018 22:30 11,7 C 11,7 C 10,0 C 92 % 0 lf 999,2 hPa 0,0 l/m 0 min 0 min 0 W/m 13,5 km/h (3 Bft) 100,00 %
10.03.2018 22:32 11,7 C 11,7 C 10,0 C 92 % 0 lf 999,2 hPa 0,0 l/m 0 min 0 min 0 W/m 18,0 km/h (3 Bft) 97,87 %
10.03.2018 22:34 11,7 C 11,7 C 10,0 C 92 % 0 lf 999,2 hPa 0,0 l/m 0 min 0 min 0 W/m 13,5 km/h (3 Bft) 95,74 %
10.03.2018 22:36 11,8 C 11,7 C 10,0 C 92 % 0 lf 999,2 hPa 0,0 l/m 0 min 0 min 0 W/m 13,5 km/h (3 Bft) 97,87 %
10.03.2018 22:38 11,7 C 11,7 C 10,0 C 92 % 0 lf 999,2 hPa 0,0 l/m 0 min 0 min 0 W/m 9,0 km/h (2 Bft) 95,65 %
10.03.2018 22:40 11,7 C 11,7 C 10,0 C 92 % 0 lf 999,2 hPa 0,0 l/m 0 min 0 min 0 W/m 13,5 km/h (3 Bft) 95,74 %
10.03.2018 22:42 11,7 C 11,7 C 10,0 C 92 % 0 lf 999,2 hPa 0,0 l/m 0 min 0 min 0 W/m 15,8 km/h (3 Bft) 95,74 %
10.03.2018 22:44 11,7 C 11,7 C 10,0 C 92 % 0 lf 999,2 hPa 0,0 l/m 0 min 0 min 0 W/m 13,5 km/h (3 Bft) 97,87 %
10.03.2018 22:46 11,7 C 11,7 C 10,0 C 92 % 0 lf 999,1 hPa 0,0 l/m 0 min 0 min 0 W/m 15,8 km/h (3 Bft) 95,74 %
10.03.2018 22:48 11,7 C 11,7 C 10,0 C 92 % 0 lf 999,1 hPa 0,0 l/m 0 min 0 min 0 W/m 13,5 km/h (3 Bft) 95,74 %
10.03.2018 22:50 11,7 C 11,7 C 10,0 C 92 % 0 lf 999,1 hPa 0,0 l/m 0 min 0 min 0 W/m 15,8 km/h (3 Bft) 95,65 %
10.03.2018 22:52 11,7 C 11,7 C 10,0 C 92 % 0 lf 999,2 hPa 0,0 l/m 0 min 0 min 0 W/m 13,5 km/h (3 Bft) 91,49 %
10.03.2018 22:54 11,7 C 11,7 C 10,0 C 92 % 0 lf 999,1 hPa 0,0 l/m 0 min 0 min 0 W/m 18,0 km/h (3 Bft) 95,74 %
10.03.2018 22:56 11,7 C 11,7 C 10,0 C 92 % 0 lf 999,1 hPa 0,0 l/m 0 min 0 min 0 W/m 13,5 km/h (3 Bft) 95,74 %
10.03.2018 22:58 11,7 C 11,7 C 10,0 C 92 % 0 lf 999,1 hPa 0,0 l/m 0 min 0 min 0 W/m 11,3 km/h (2 Bft) 95,74 %
10.03.2018 23:00 11,7 C 11,7 C 10,0 C 92 % 0 lf 999,1 hPa 0,0 l/m 0 min 0 min 0 W/m 15,8 km/h (3 Bft) 95,74 %
10.03.2018 23:02 11,7 C 11,7 C 10,0 C 92 % 0 lf 999,0 hPa 0,0 l/m 0 min 0 min 0 W/m 13,5 km/h (3 Bft) 93,62 %
10.03.2018 23:04 11,7 C 11,7 C 10,0 C 92 % 0 lf 998,9 hPa 0,0 l/m 0 min 0 min 0 W/m 11,3 km/h (2 Bft) 91,49 %
10.03.2018 23:06 11,7 C 11,7 C 10,0 C 92 % 0 lf 998,9 hPa 0,0 l/m 0 min 0 min 0 W/m 11,3 km/h (2 Bft) 95,74 %
10.03.2018 23:08 11,7 C 11,7 C 10,0 C 92 % 0 lf 998,9 hPa 0,0 l/m 0 min 0 min 0 W/m 11,3 km/h (2 Bft) 93,62 %
10.03.2018 23:10 11,7 C 11,7 C 10,0 C 92 % 0 lf 998,9 hPa 0,0 l/m 0 min 0 min 0 W/m 13,5 km/h (3 Bft) 95,74 %
10.03.2018 23:12 11,7 C 11,7 C 10,0 C 92 % 0 lf 998,8 hPa 0,0 l/m 0 min 0 min 0 W/m 11,3 km/h (2 Bft) 95,74 %
10.03.2018 23:14 11,7 C 11,7 C 10,0 C 92 % 0 lf 998,8 hPa 0,0 l/m 0 min 0 min 0 W/m 13,5 km/h (3 Bft) 95,65 %
10.03.2018 23:16 11,7 C 11,7 C 10,0 C 92 % 0 lf 998,8 hPa 0,0 l/m 0 min 0 min 0 W/m 11,3 km/h (2 Bft) 91,67 %
10.03.2018 23:18 11,7 C 11,7 C 10,0 C 92 % 0 lf 998,8 hPa 0,0 l/m 0 min 0 min 0 W/m 9,0 km/h (2 Bft) 95,74 %
10.03.2018 23:20 11,7 C 11,7 C 10,0 C 92 % 0 lf 998,8 hPa 0,0 l/m 0 min 0 min 0 W/m 11,3 km/h (2 Bft) 93,62 %
10.03.2018 23:22 11,7 C 11,7 C 10,0 C 92 % 0 lf 998,9 hPa 0,0 l/m 0 min 0 min 0 W/m 6,8 km/h (2 Bft) 91,49 %
10.03.2018 23:24 11,7 C 11,7 C 10,0 C 92 % 0 lf 998,8 hPa 0,0 l/m 0 min 0 min 0 W/m 15,8 km/h (3 Bft) 95,74 %
10.03.2018 23:26 11,7 C 11,7 C 10,0 C 92 % 0 lf 999,0 hPa 0,0 l/m 0 min 0 min 0 W/m 11,3 km/h (2 Bft) 93,48 %
10.03.2018 23:28 11,7 C 11,7 C 10,0 C 92 % 0 lf 999,0 hPa 0,0 l/m 0 min 0 min 0 W/m 9,0 km/h (2 Bft) 91,49 %
10.03.2018 23:30 11,7 C 11,7 C 10,0 C 92 % 0 lf 998,9 hPa 0,0 l/m 0 min 0 min 0 W/m 6,8 km/h (2 Bft) 95,74 %
10.03.2018 23:32 11,7 C 11,7 C 10,0 C 92 % 0 lf 998,9 hPa 0,0 l/m 0 min 0 min 0 W/m 11,3 km/h (2 Bft) 93,62 %
10.03.2018 23:34 11,7 C 11,7 C 10,0 C 92 % 1 lf 999,0 hPa 0,0 l/m 0 min 0 min 0 W/m 6,8 km/h (2 Bft) 93,62 %
10.03.2018 23:36 11,7 C 11,7 C 10,0 C 92 % 1 lf 998,9 hPa 0,0 l/m 0 min 0 min 0 W/m 11,3 km/h (2 Bft) 95,65 %
10.03.2018 23:38 11,7 C 11,1 C 10,0 C 92 % 1 lf 998,9 hPa 0,0 l/m 0 min 0 min 0 W/m 11,3 km/h (2 Bft) 95,74 %
10.03.2018 23:40 11,7 C 11,1 C 10,0 C 92 % 1 lf 998,8 hPa 0,0 l/m 0 min 0 min 0 W/m 13,5 km/h (3 Bft) 97,87 %
10.03.2018 23:42 11,7 C 11,1 C 10,0 C 92 % 1 lf 998,8 hPa 0,0 l/m 0 min 0 min 0 W/m 11,3 km/h (2 Bft) 97,87 %
10.03.2018 23:44 11,7 C 11,1 C 10,0 C 92 % 1 lf 998,8 hPa 0,0 l/m 0 min 0 min 0 W/m 9,0 km/h (2 Bft) 97,87 %
10.03.2018 23:46 11,7 C 11,1 C 9,4 C 92 % 1 lf 998,7 hPa 0,0 l/m 0 min 0 min 0 W/m 13,5 km/h (3 Bft) 97,92 %
10.03.2018 23:48 11,7 C 11,1 C 9,4 C 92 % 1 lf 998,8 hPa 0,0 l/m 0 min 0 min 0 W/m 11,3 km/h (2 Bft) 97,83 %
10.03.2018 23:50 11,7 C 11,1 C 9,4 C 92 % 1 lf 998,8 hPa 0,0 l/m 0 min 0 min 0 W/m 13,5 km/h (3 Bft) 97,87 %
10.03.2018 23:52 11,6 C 11,1 C 9,4 C 92 % 1 lf 998,7 hPa 0,0 l/m 0 min 0 min 0 W/m 13,5 km/h (3 Bft) 97,87 %
10.03.2018 23:54 11,6 C 11,1 C 9,4 C 92 % 1 lf 998,8 hPa 0,0 l/m 0 min 0 min 0 W/m 11,3 km/h (2 Bft) 97,87 %
10.03.2018 23:56 11,6 C 11,1 C 9,4 C 92 % 1 lf 998,8 hPa 0,0 l/m 0 min 0 min 0 W/m 11,3 km/h (2 Bft) 97,87 %
10.03.2018 23:58 11,6 C 11,1 C 9,4 C 92 % 1 lf 998,7 hPa 0,0 l/m 0 min 0 min 0 W/m 11,3 km/h (2 Bft) 100,00 %
_ Min-Zeit 00:02 00:00 00:00 14:08 09:30 13:58 - - - - 02:40 11:14
Minimum _ 7,4 C 7,2 C 6,1 C 75 % 0 lf 998,6 hPa - - - - 6,8 km/h (2 Bft) 87,23 %
_ Max-Zeit 14:20 13:48 13:36 04:00 00:00 00:00 00:04 14:08 00:08 13:48 15:12 00:02
Maximum _ 16,1 C 18,9 C 16,7 C 99 % 15 lf 1001,6 hPa 0,2 l/m 4 min 4 min 426 W/m 33,8 km/h
S (5 Bft)
100,00 %
Durchschnitt _ 11,1 C 11,3 C 9,9 C 91 % 6 lf 999,4 hPa #1,6 l/m #2:06 h #3:42 h 150 W/m 16,2 km/h (3 Bft) 96,35 %
© 2018 W. Hausmann